GEFSGL_500_meanwind_000.txt.gz
Wind_Speed
56 56 55 53 50 44 39 36 35 33 28 27 23 23 24 26 28 29 31 31 30 26 24 25 27 28 30 31 32 32 33 34 35 34 35 34 33 35 36 33 29 27 25
61 61 60 61 58 52 46 39 38 33 26 27 32 30 30 30 29 28 29 31 31 27 23 24 24 24 26 29 30 30 31 31 31 32 35 34 34 35 34 30 29 26 25
66 65 66 65 64 61 54 46 40 35 33 35 39 37 35 33 31 29 27 29 28 28 26 24 22 21 22 23 24 25 27 29 30 31 35 34 33 29 22 26 28 25 23
71 75 77 74 71 65 59 54 45 37 39 42 43 41 38 34 30 27 27 26 25 26 26 24 21 18 15 14 15 19 25 30 30 28 32 32 32 29 25 25 25 23 22
67 72 76 62 60 70 68 63 50 51 54 50 46 44 42 38 33 29 29 27 26 27 25 25 21 14 10 13 14 16 22 27 25 30 32 26 24 25 24 22 21 21 19
69 73 64 61 65 71 70 67 66 77 77 65 50 47 45 41 37 35 31 30 28 28 27 24 22 16 17 14 16 18 21 25 22 25 27 26 28 27 23 20 19 18 17
87 85 86 86 80 76 78 79 79 78 74 62 50 46 43 41 40 39 36 32 29 28 27 23 22 18 17 14 14 17 21 24 29 28 25 23 25 24 19 18 18 16 15
67 64 71 80 87 84 80 83 81 80 72 62 51 51 50 46 41 40 38 35 32 28 28 23 20 18 15 16 14 16 21 25 25 25 24 18 16 15 18 18 16 15 14
37 39 39 43 51 60 67 70 74 78 75 65 57 49 51 52 48 44 41 38 36 32 30 26 20 18 16 17 18 18 17 18 23 25 24 22 19 19 18 16 14 13 12
37 36 37 37 36 37 41 50 57 64 68 67 64 53 49 50 50 47 44 40 39 34 31 29 24 21 18 16 16 16 18 20 20 19 21 23 21 19 17 14 13 12 10
45 46 46 39 34 35 35 37 41 48 58 61 60 58 56 51 47 45 44 41 38 35 32 31 28 25 21 19 19 19 19 23 25 22 20 19 19 18 16 13 12 10 9
48 49 48 43 37 35 33 31 31 33 41 49 54 58 55 46 44 45 45 40 35 34 33 31 29 26 23 23 24 24 25 26 26 24 21 20 18 15 14 14 13 9 8
52 49 48 48 42 38 36 31 26 24 27 38 50 61 56 48 51 55 49 41 36 34 33 32 28 25 25 26 26 27 29 29 26 24 21 19 15 15 15 14 12 10 11
52 51 51 48 48 45 40 33 26 23 25 25 33 55 61 59 49 51 47 42 38 34 33 31 25 24 25 27 28 26 24 22 23 21 19 17 15 15 14 13 13 14 15
53 52 54 54 54 47 43 35 26 24 26 25 21 40 63 66 53 50 43 38 36 34 33 29 25 25 27 29 27 23 21 21 22 21 18 15 14 14 14 15 16 17 17
49 48 48 48 45 45 45 41 30 28 28 23 19 26 39 57 57 51 42 39 38 35 32 28 27 27 26 27 24 22 22 22 21 19 17 15 15 16 16 17 17 18 18
42 40 39 37 37 43 42 38 32 27 26 21 18 24 31 40 47 47 38 37 35 33 32 31 29 29 28 27 25 24 24 21 18 17 18 18 18 19 18 18 19 20 20
28 27 26 25 32 38 37 34 30 26 26 23 19 24 33 40 40 45 40 36 34 34 34 33 29 30 30 30 28 26 24 20 17 18 20 21 20 20 19 19 21 23 23
19 18 17 21 29 33 33 34 30 26 25 23 20 22 30 39 43 46 43 35 31 33 33 31 30 30 29 29 29 27 24 20 18 18 19 20 20 20 20 21 23 25 26
10 5 9 16 24 30 33 32 30 28 26 25 24 24 29 39 50 50 42 34 32 33 33 32 30 28 28 28 27 25 22 18 17 18 19 20 21 21 22 23 24 26 26
4 4 12 22 30 33 32 29 28 28 28 29 29 32 36 41 51 47 38 30 30 31 33 31 29 28 28 27 25 22 19 18 17 18 19 20 20 20 21 23 24 24 24
10 14 22 29 31 28 26 25 25 30 35 37 39 42 37 43 48 40 33 32 30 30 31 30 29 27 26 26 24 22 20 19 17 17 17 19 20 20 21 21 21 20 20
16 17 20 23 24 23 22 22 22 26 32 36 38 39 43 44 39 36 35 32 30 31 30 29 28 27 26 25 23 21 19 17 17 17 17 18 18 18 18 18 17 18 20
17 16 17 22 27 29 30 34 35 39 42 41 40 40 38 34 36 36 33 31 29 29 29 27 26 26 25 24 22 20 18 17 16 17 17 18 18 17 17 17 18 19 20
26 30 34 37 42 44 45 43 38 40 43 42 36 30 28 30 32 33 33 30 28 27 26 25 25 24 22 20 18 17 15 14 15 15 16 17 17 16 16 18 19 19 21
44 43 42 45 48 45 44 43 40 40 40 37 31 28 29 30 30 30 29 28 26 25 24 23 22 20 17 15 14 14 14 13 13 14 15 16 16 16 17 19 19 19 21

GEFSGL_500_meanwind_006.txt.gz
Wind_Speed
61 61 61 61 62 62 62 61 61 60 58 54 50 48 46 43 41 40 37 35 33 31 31 29 26 23 21 20 21 21 21 23 25 28 30 30 30 29 28 28 28 29 30
64 64 64 63 63 64 65 66 66 65 63 59 54 50 51 49 44 41 38 36 33 31 30 30 27 24 21 20 20 20 20 21 23 25 28 29 30 30 30 31 31 31 30
67 67 68 68 68 68 68 69 71 70 68 64 58 52 51 51 48 44 41 38 34 31 29 29 27 24 22 21 20 20 19 19 21 25 27 30 31 32 32 32 32 31 28
74 74 74 75 75 75 74 74 75 75 72 69 64 59 54 53 53 50 46 43 37 32 30 29 27 25 23 22 20 19 18 18 19 23 27 30 32 33 33 32 31 29 28
77 77 78 79 80 80 81 81 81 79 74 72 69 65 61 59 60 58 53 49 42 35 32 31 30 27 25 23 21 19 18 18 18 21 24 28 31 32 31 30 30 29 27
57 56 57 59 62 66 72 78 81 82 81 78 77 74 68 62 61 62 58 53 47 40 35 33 32 30 27 24 23 21 19 18 19 20 21 22 25 27 28 31 32 29 26
35 34 34 35 37 39 43 49 55 61 67 72 76 75 70 65 60 57 57 56 52 45 40 36 33 32 29 26 24 23 20 18 18 19 19 19 20 23 26 28 28 28 25
35 35 36 36 35 34 32 30 31 32 37 45 55 63 65 66 64 57 52 53 53 49 44 40 35 32 30 27 25 24 21 17 16 16 17 17 19 22 23 24 25 24 22
43 43 43 43 42 40 37 35 32 29 28 28 31 38 49 57 63 64 59 54 52 50 47 42 37 34 31 28 27 25 22 18 15 14 15 16 20 22 22 21 21 21 19
46 46 46 46 46 43 41 39 37 34 30 28 26 26 29 39 52 60 63 60 57 54 51 47 42 38 34 31 29 27 24 21 18 16 15 17 20 23 23 21 19 17 16
48 48 47 46 45 42 40 37 36 34 32 29 28 27 27 28 35 47 57 60 56 55 54 51 48 43 38 35 32 30 27 23 20 18 17 18 19 20 20 20 19 18 16
51 49 48 46 44 41 39 37 37 36 34 33 31 29 28 29 30 36 47 56 57 55 55 55 51 46 42 38 34 33 30 25 21 18 17 16 17 17 18 19 17 16 16
51 49 47 45 42 41 40 39 39 39 37 36 33 30 29 29 29 31 41 54 57 54 52 52 51 49 46 41 37 34 32 27 23 19 16 16 18 19 19 17 17 16 16
47 45 44 42 40 39 39 37 37 37 38 37 34 31 30 29 29 29 37 53 59 53 51 51 51 50 47 43 38 35 32 28 24 20 18 18 19 19 18 18 17 17 17
42 40 38 38 37 36 36 35 34 35 35 34 33 30 29 29 28 28 32 48 59 53 50 51 51 49 44 40 37 33 31 28 25 22 20 20 19 18 18 18 17 17 17
34 32 31 31 32 32 31 31 31 33 33 33 32 29 27 28 27 27 29 42 56 54 49 47 46 44 40 37 33 30 29 28 26 24 23 22 21 20 19 18 18 17 16
28 26 26 27 27 27 27 27 28 30 31 32 31 29 28 27 26 24 27 38 52 53 47 44 42 39 36 33 31 29 29 28 26 24 23 23 23 21 20 19 18 16 16
22 22 21 21 20 19 19 22 25 27 27 27 26 26 26 24 21 20 23 35 46 46 43 41 39 36 33 31 29 29 28 26 24 23 24 23 22 20 20 19 18 17 15
20 18 15 11 9 9 12 17 21 23 22 20 19 19 18 17 17 22 27 35 44 43 42 39 37 34 32 30 29 29 28 27 25 24 23 22 21 20 20 19 17 16 16
18 14 10 6 5 9 14 19 22 22 19 15 12 11 13 17 25 30 34 41 41 39 38 36 34 33 32 30 30 30 29 28 26 24 22 20 19 19 18 17 16 16 17
26 24 23 22 22 23 25 26 25 22 17 13 11 12 18 26 31 34 37 38 36 34 34 34 32 32 31 31 31 31 30 28 25 21 19 18 17 17 16 16 16 17 18
31 30 30 29 28 27 26 24 21 18 16 14 14 18 25 31 33 34 35 33 31 29 28 29 29 30 31 31 31 30 28 26 22 19 17 16 16 16 15 15 16 18 20
26 25 25 25 24 23 22 19 18 17 17 17 18 24 29 33 34 33 32 30 28 26 27 28 27 27 29 30 30 27 25 23 20 17 16 15 15 14 15 16 17 19 20
25 22 20 18 18 18 17 17 18 18 18 19 23 29 33 35 34 31 27 25 24 24 26 26 25 25 26 27 26 24 22 20 18 16 15 14 14 15 16 17 18 18 19
32 28 23 19 17 16 16 16 17 18 19 22 27 32 35 34 31 27 24 22 22 23 24 25 24 24 25 24 23 21 19 18 16 15 14 14 16 17 17 17 17 18 18
38 36 34 31 28 26 23 22 22 24 25 28 30 32 33 30 26 22 20 19 20 21 23 23 23 23 23 22 20 18 17 16 15 14 15 16 17 17 17 17 17 18 19

GEFSGL_500_meanwind_012.txt.gz
Wind_Speed
67 67 66 66 65 65 64 63 62 62 61 60 60 59 59 57 54 51 48 46 44 42 40 38 36 35 34 34 32 30 27 24 22 24 22 21 23 25 26 27 26 23 23
74 73 71 70 69 69 69 69 69 67 66 65 64 63 62 61 59 57 53 51 48 46 44 42 40 37 35 34 33 30 28 25 22 22 22 21 22 24 27 29 28 27 26
69 66 62 60 59 60 62 66 69 71 72 71 69 68 66 65 63 60 58 55 53 50 48 44 42 39 36 35 33 31 29 26 23 22 22 21 21 23 25 28 29 28 28
58 55 52 50 49 48 48 51 56 63 69 73 74 72 71 69 66 63 60 57 55 52 49 46 42 41 39 37 34 31 29 27 24 22 22 20 20 21 23 25 27 27 27
53 51 49 47 45 43 42 40 41 45 53 61 68 72 74 73 71 68 64 61 57 53 50 47 43 41 40 38 36 33 30 27 25 23 22 20 18 18 21 23 25 25 26
55 53 51 48 46 43 40 37 36 35 37 41 47 55 64 69 72 72 69 65 61 56 52 48 45 43 42 40 38 35 31 27 24 23 22 20 18 17 19 21 22 23 24
58 56 53 51 48 46 43 41 38 35 33 32 33 36 43 53 62 68 71 69 66 61 55 50 47 44 43 42 40 37 32 28 24 23 22 19 17 16 16 18 19 21 21
58 56 55 53 51 49 47 44 41 38 36 33 31 30 31 35 42 51 60 66 67 64 60 54 50 47 44 43 42 39 35 29 25 23 21 18 16 15 15 17 18 19 20
57 54 52 52 51 50 48 46 44 42 39 36 35 34 32 31 32 37 43 53 60 63 62 58 54 51 46 44 43 41 37 32 26 23 20 17 15 15 15 16 17 18 19
50 48 47 47 47 48 47 46 45 44 42 39 36 35 34 32 31 31 32 38 47 56 60 59 56 54 49 45 44 42 39 34 28 23 19 16 14 14 14 15 15 15 17
44 42 41 42 43 44 45 43 43 43 42 40 38 36 35 33 31 30 29 30 36 46 55 57 56 54 52 47 45 44 42 37 30 24 20 16 14 13 13 14 14 14 16
37 35 35 35 37 38 40 40 40 40 40 39 37 36 34 33 32 30 27 24 27 39 50 54 54 52 51 49 46 46 44 39 32 25 20 17 15 14 14 14 14 14 15
31 28 26 27 29 31 32 34 35 37 38 37 35 34 33 32 31 30 27 24 20 31 46 52 54 50 49 48 47 46 44 40 33 28 23 19 16 14 14 14 14 14 15
30 26 22 20 21 23 26 27 29 31 33 34 34 33 32 31 30 29 27 23 21 24 41 49 54 52 49 48 47 45 43 39 34 29 25 21 17 15 15 15 15 15 16
29 25 20 16 14 15 17 20 22 25 28 30 31 31 31 31 30 29 27 24 22 22 33 46 51 53 50 48 46 44 42 38 33 29 26 22 19 17 17 17 17 18 19
32 25 18 13 9 9 11 14 17 20 24 26 29 30 31 31 31 29 27 25 23 22 27 40 48 50 50 47 45 44 40 35 32 30 27 24 21 20 20 20 20 20 21
37 28 20 12 6 5 6 10 13 16 20 23 26 28 30 31 31 30 28 27 25 24 26 36 46 49 50 47 46 43 39 34 32 30 28 26 23 23 22 23 23 23 24
41 34 26 18 10 4 1 6 10 13 16 19 22 25 27 29 30 30 29 27 26 25 28 34 44 47 50 47 44 43 39 36 33 31 28 26 25 25 25 25 25 25 24
43 39 33 27 21 15 10 7 7 10 13 16 19 22 24 26 27 27 27 26 26 26 28 32 40 45 47 46 43 40 38 35 34 32 29 28 27 27 27 27 27 26 25
40 38 35 32 29 25 21 16 12 10 11 13 15 18 21 22 24 25 25 24 25 26 27 30 37 44 44 42 41 39 37 35 33 32 30 30 29 29 28 28 28 26 25
37 36 34 31 29 27 24 21 17 14 11 10 11 14 16 18 20 21 22 23 24 25 27 30 35 42 41 39 38 37 35 34 33 32 32 31 30 30 30 29 28 26 25
34 34 32 29 27 26 24 21 19 16 13 11 10 11 13 15 17 19 21 24 26 27 30 32 36 39 38 36 36 36 35 34 34 33 32 31 31 31 30 28 27 26 25
32 30 29 28 27 26 25 24 22 21 19 18 18 17 17 18 20 22 25 27 28 30 32 35 37 38 38 37 37 35 35 34 33 32 32 31 31 30 28 27 26 25 25
34 29 27 26 26 26 26 26 26 27 26 26 26 26 26 27 27 27 28 29 30 32 34 35 36 36 36 35 34 34 34 33 33 33 32 31 29 27 26 25 24 23 23
34 31 28 26 26 26 27 28 28 28 29 29 29 30 31 31 31 30 30 30 30 31 32 33 33 33 32 31 31 31 32 32 31 30 28 26 25 24 23 22 21 21 22
31 30 28 26 25 25 26 27 28 28 28 28 28 29 29 29 29 29 29 28 28 28 28 28 28 29 29 30 29 29 29 28 26 25 23 22 21 20 19 19 19 21 22

GEFSGL_500_meanwind_018.txt.gz
Wind_Speed
49 50 51 52 52 52 52 52 52 54 58 61 64 65 65 65 64 63 62 59 57 55 53 52 50 49 47 44 41 37 34 32 30 29 27 26 25 23 21 21 21 21 22
58 59 61 61 60 58 56 55 55 55 55 58 61 65 68 70 70 68 67 65 64 62 60 57 55 53 51 47 44 41 37 34 32 30 29 27 25 23 22 21 21 21 22
63 65 66 65 64 62 59 56 55 54 54 56 58 62 65 69 73 74 73 71 69 67 65 63 60 57 55 52 48 44 40 37 34 32 30 28 26 24 22 21 20 20 21
66 67 67 67 66 64 60 57 54 53 52 53 54 56 59 63 67 72 76 76 74 72 70 68 64 61 58 56 52 48 44 40 35 33 31 29 27 24 22 21 20 19 20
66 66 66 66 65 62 59 55 53 52 51 51 51 52 53 55 58 62 68 74 77 76 74 71 69 65 62 59 55 52 48 43 38 34 32 30 27 26 24 22 20 19 20
65 64 63 62 62 60 56 52 49 48 48 49 49 50 50 49 50 51 55 61 70 75 76 75 73 69 65 61 58 54 50 45 40 37 34 31 28 26 24 22 20 19 20
62 62 62 61 58 55 51 48 45 43 44 46 46 47 47 46 45 45 46 48 54 64 72 76 76 72 67 63 59 55 52 47 43 39 35 32 30 27 25 22 20 20 20
60 61 61 58 53 48 44 41 40 39 40 42 45 45 46 44 42 41 40 41 42 47 57 67 74 74 69 64 59 56 53 48 44 41 37 34 31 28 25 22 20 20 20
60 60 59 54 48 42 38 35 34 35 36 39 43 44 44 42 40 38 36 35 35 37 42 52 62 70 69 65 60 56 52 49 46 42 39 36 32 28 25 22 19 18 19
58 59 55 50 43 37 32 28 28 30 32 35 39 42 43 41 40 37 34 32 30 31 34 40 49 59 64 64 60 56 52 49 46 43 39 36 32 29 25 22 19 19 19
57 57 52 45 38 32 26 22 22 25 28 31 35 38 41 40 39 37 34 31 29 28 29 32 38 48 56 60 59 55 52 50 46 43 40 37 33 29 26 23 21 20 20
55 54 50 43 35 28 22 18 16 19 24 28 31 34 37 38 38 37 34 31 29 27 26 27 32 40 50 56 56 55 52 49 46 43 40 37 34 30 26 24 22 21 21
54 52 48 42 34 26 20 14 11 14 19 24 28 31 33 35 36 35 33 30 28 26 24 24 27 36 46 53 54 53 52 48 45 42 39 37 35 31 28 25 23 22 22
53 51 47 41 34 27 20 13 8 7 13 19 24 27 29 32 33 33 32 29 26 25 23 22 24 33 43 50 53 52 50 47 45 41 39 38 36 32 29 26 24 23 22
52 50 46 41 35 28 21 14 8 4 6 13 19 24 26 28 29 30 29 28 26 24 23 23 24 31 42 49 51 50 49 47 45 43 41 38 36 33 30 27 25 23 22
50 49 45 41 36 30 22 15 9 4 2 8 15 20 23 25 26 26 26 25 24 23 22 23 25 31 42 48 50 50 48 46 44 42 41 39 37 34 30 28 26 24 23
48 47 44 40 36 31 25 18 12 7 2 5 11 17 20 23 24 24 24 23 22 21 21 22 25 32 43 49 50 51 47 44 42 40 40 39 38 35 32 29 26 25 23
46 45 43 40 36 31 26 20 15 10 5 4 8 14 17 20 22 22 22 21 21 20 20 21 25 33 43 51 50 51 48 44 42 41 40 39 38 36 34 31 28 26 25
44 43 41 39 36 31 27 21 16 12 7 4 6 11 15 18 20 21 21 20 19 18 19 20 23 32 42 48 50 50 48 45 43 42 40 38 37 36 34 32 29 27 26
42 40 39 38 35 32 27 23 17 13 9 5 5 9 13 16 18 20 20 20 18 16 16 17 20 28 35 44 48 50 49 46 44 42 40 38 37 35 34 32 30 28 27
40 39 38 36 35 32 28 24 19 14 10 6 5 8 11 14 17 19 19 19 17 16 15 15 17 23 30 41 45 48 46 45 42 40 39 37 35 34 33 31 30 29 28
36 36 36 35 34 32 29 26 22 17 12 8 6 7 10 13 16 18 18 17 17 16 14 14 16 21 27 34 40 44 44 43 40 38 36 35 34 33 32 31 30 29 28
33 33 34 34 33 31 30 27 24 20 15 12 8 7 9 12 14 16 16 17 17 16 16 16 18 22 26 32 38 40 39 38 37 36 34 32 32 31 30 29 29 28 28
30 30 31 32 32 30 28 27 26 23 19 16 13 11 10 11 13 14 15 15 16 16 17 19 23 26 29 31 34 36 35 34 34 33 32 31 30 30 29 28 28 27 27
27 28 28 29 30 29 27 26 26 25 23 20 19 17 15 14 13 14 15 16 18 20 21 23 26 28 30 31 32 32 31 32 32 30 29 29 28 28 27 26 25 24 24
24 25 26 26 26 27 26 25 25 25 25 23 22 21 19 18 17 18 18 19 21 22 25 27 29 29 29 31 31 30 29 29 29 27 26 26 25 25 23 22 22 21 21

GEFSGL_500_meanwind_024.txt.gz
Wind_Speed
37 38 40 43 45 48 49 51 52 53 55 56 57 58 58 60 62 64 66 67 67 65 62 58 56 55 53 51 50 48 47 45 43 41 39 36 33 30 27 25 23 23 23
39 41 44 47 49 51 52 54 56 57 58 59 60 61 63 63 64 66 68 70 71 71 70 66 62 59 57 55 53 52 50 49 46 44 42 39 36 33 30 27 25 24 24
42 44 47 49 51 53 55 57 59 59 59 59 60 62 64 65 67 68 70 72 73 74 75 74 70 65 61 59 58 55 53 52 50 47 44 41 38 35 32 29 27 26 25
44 47 49 51 53 55 57 58 59 59 59 58 59 61 63 64 66 67 70 73 75 76 76 77 77 73 67 62 60 59 57 54 52 50 47 44 41 38 34 32 29 27 26
46 49 51 53 54 56 58 59 59 58 57 57 58 59 61 63 64 65 67 70 73 76 77 78 79 79 74 69 62 60 60 58 55 53 50 47 43 40 37 34 31 29 28
48 51 52 54 55 57 57 57 55 53 52 51 52 53 56 59 61 62 64 66 68 71 74 76 78 80 79 76 69 63 59 58 57 55 52 49 46 43 39 36 33 30 29
50 52 54 54 56 56 56 54 50 47 46 45 45 46 49 52 54 57 60 61 63 64 67 71 75 78 79 78 77 69 62 57 57 56 55 52 48 45 42 38 35 32 30
52 53 54 54 56 55 54 50 46 42 39 37 36 37 40 44 48 50 53 55 56 57 59 62 68 73 76 77 77 75 69 61 56 56 54 52 50 48 44 41 37 33 31
52 53 53 54 55 54 52 47 42 37 33 30 29 30 33 36 41 44 44 46 48 49 52 54 58 64 71 75 75 74 72 69 61 56 54 53 51 49 46 42 38 35 32
52 52 52 52 53 52 49 44 39 34 29 25 22 23 25 29 34 38 39 39 42 43 45 46 50 54 61 68 71 71 72 71 67 61 56 52 51 49 47 43 39 36 33
51 51 51 51 51 50 46 41 36 31 26 20 16 17 20 24 29 32 34 35 36 38 39 40 41 45 52 58 63 66 68 69 68 65 59 55 51 49 46 44 40 37 34
50 50 49 50 49 47 43 39 34 29 23 16 11 11 16 20 24 27 30 32 33 33 35 36 37 38 41 47 53 58 63 66 66 65 62 57 54 49 45 43 41 37 35
48 48 48 48 47 45 41 37 32 27 21 14 8 6 11 16 21 24 27 30 30 31 32 33 32 32 34 38 43 49 55 60 64 65 63 57 54 51 47 44 41 38 36
46 47 48 46 44 43 39 35 30 25 19 13 7 4 9 12 16 20 24 27 28 28 29 29 29 28 29 31 35 41 47 53 59 62 61 58 53 51 48 44 41 38 37
45 46 46 45 43 40 37 34 29 24 19 13 7 2 6 10 14 18 23 25 25 26 27 27 26 26 26 28 31 35 40 46 53 57 59 57 53 50 48 45 42 40 38
43 44 44 44 42 39 36 32 28 23 19 14 8 1 6 10 13 17 21 23 24 25 25 25 25 25 26 27 30 33 36 43 50 55 57 57 53 50 47 45 43 41 38
41 42 42 42 40 37 34 31 27 23 18 13 9 2 4 9 12 16 18 20 22 23 23 24 24 24 25 27 29 32 35 41 48 53 54 55 52 49 47 45 43 41 39
39 40 41 41 39 36 33 30 26 21 17 12 8 3 3 8 12 14 15 16 18 20 22 23 23 24 25 26 28 31 36 42 48 52 53 53 51 49 47 45 43 41 39
38 38 39 39 37 35 32 28 24 20 15 11 7 4 4 8 10 13 14 15 16 18 20 22 22 23 23 25 28 32 38 44 49 52 52 51 49 48 47 44 43 41 40
36 36 37 37 35 34 31 28 23 19 14 10 6 3 4 7 9 11 13 14 14 16 18 19 20 21 22 25 28 33 39 47 50 51 52 51 49 47 45 44 43 41 38
34 34 35 35 34 33 31 28 23 17 14 9 5 3 4 6 8 10 11 12 12 13 15 16 17 19 21 23 29 35 42 48 50 51 52 50 47 46 45 43 41 39 36
32 32 33 34 33 32 30 28 24 18 14 10 6 3 4 6 8 9 10 10 11 11 12 13 15 17 18 23 30 38 43 46 49 49 50 48 45 44 41 39 38 36 35
29 30 31 32 32 31 29 27 24 20 16 11 8 5 4 6 7 9 9 9 9 10 10 11 14 16 19 26 31 37 41 44 47 47 46 44 42 40 38 37 36 35 33
27 27 29 30 30 29 28 26 23 21 17 14 10 7 6 6 7 8 8 9 9 9 10 12 14 18 22 27 32 35 38 42 45 45 43 40 38 36 34 33 33 32 31
25 24 26 27 28 28 27 25 23 20 18 15 13 10 8 7 7 7 8 8 10 11 11 13 16 19 23 27 33 35 37 41 42 42 40 37 35 33 31 30 30 30 29
23 22 22 24 25 26 26 25 23 21 19 17 15 13 10 9 8 8 8 9 10 11 13 15 19 23 27 29 32 34 37 38 38 38 36 34 32 30 28 27 27 27 26

GEFSGL_500_meanwind_030.txt.gz
Wind_Speed
39 39 39 39 39 39 39 40 41 42 43 45 47 49 51 52 54 54 54 53 53 53 53 52 52 50 47 45 44 43 43 42 42 41 40 38 38 36 34 32 30 27 24
40 40 40 40 40 40 41 42 43 44 45 46 48 50 53 55 56 57 58 58 58 57 57 57 57 56 53 51 48 45 45 45 44 43 42 40 40 39 37 35 32 30 27
42 42 41 41 42 42 43 43 44 45 46 48 50 52 53 55 57 59 61 61 62 62 62 61 61 61 60 57 54 51 48 47 46 46 44 43 42 41 40 38 35 32 29
43 43 43 42 42 43 43 44 45 46 48 49 50 51 53 55 57 59 60 61 62 63 63 63 64 64 64 63 60 57 54 51 48 48 47 46 44 43 42 40 38 35 33
43 44 43 43 43 43 44 45 46 48 49 49 50 51 52 52 53 55 57 58 58 60 61 61 65 67 67 67 66 62 60 57 54 51 49 48 47 45 43 42 41 39 36
44 44 44 43 43 44 45 46 47 48 48 49 49 48 47 47 47 49 52 54 56 58 59 59 61 66 68 69 69 67 64 61 58 55 52 51 49 47 45 44 43 42 39
45 45 44 44 44 44 45 46 47 48 47 47 46 44 43 43 43 45 46 48 50 53 55 57 58 60 64 68 70 70 68 65 62 59 55 52 49 49 48 46 45 44 42
46 45 44 44 44 44 46 47 47 47 45 44 42 41 40 39 40 41 41 42 43 46 50 52 54 56 59 63 66 68 68 67 64 61 58 55 52 50 49 48 47 45 44
46 45 45 44 44 44 46 46 46 45 43 41 39 38 37 36 35 33 32 33 34 38 42 46 48 50 53 57 60 63 65 65 64 62 61 58 54 51 49 49 47 45 44
46 45 44 43 44 44 45 45 44 42 41 39 37 36 34 31 28 25 23 23 25 30 35 40 44 45 47 50 53 56 60 62 62 61 60 61 57 51 48 49 47 45 45
46 45 43 43 43 44 44 43 42 41 39 37 35 34 31 27 23 20 16 16 20 25 30 34 38 41 43 45 47 50 54 57 60 61 60 60 58 55 51 48 47 46 44
46 44 43 42 43 44 43 41 40 39 37 36 33 30 27 22 18 14 11 11 15 20 25 29 32 35 38 40 42 45 48 52 55 57 59 59 57 54 51 49 46 45 45
45 43 42 42 42 43 41 39 38 37 36 34 31 27 23 19 14 10 7 7 13 18 21 24 27 30 33 35 38 41 44 47 50 53 55 56 55 55 55 51 46 44 44
45 43 42 41 41 42 40 38 37 35 34 32 29 24 19 15 10 6 4 6 12 17 19 21 24 27 28 30 33 37 40 42 45 48 50 52 53 54 54 52 49 46 43
44 42 41 41 41 41 39 37 35 34 32 30 26 22 17 12 8 5 3 6 12 15 17 18 20 23 25 27 29 31 35 37 40 44 47 49 50 51 51 50 49 45 41
44 42 40 40 40 40 38 36 34 33 30 28 25 20 15 11 7 2 3 6 11 14 16 17 18 20 22 24 26 27 30 34 36 39 42 45 49 50 50 50 47 42 40
43 41 39 39 39 39 36 34 32 30 28 26 23 19 14 10 5 1 3 6 10 13 15 16 17 19 22 23 24 25 27 30 33 36 39 42 46 48 49 49 47 43 40
43 40 39 38 38 37 35 33 31 28 26 23 21 17 13 8 4 2 4 7 9 11 13 14 16 18 20 21 22 23 24 27 30 33 37 41 43 45 45 46 46 44 42
42 39 37 37 37 35 33 31 29 27 25 22 19 15 11 7 3 1 3 5 8 10 11 12 14 15 18 19 20 21 22 24 27 31 35 39 43 44 44 44 44 43 42
40 38 36 35 35 34 33 30 28 26 24 21 17 14 11 7 3 0 2 4 6 9 11 12 13 15 16 17 18 20 21 23 26 30 35 39 43 44 44 44 43 42 41
39 37 35 34 34 33 32 30 27 25 23 21 17 14 11 8 4 2 2 4 6 8 10 12 14 15 16 17 18 20 22 23 25 29 33 39 43 45 45 46 45 44 42
38 36 34 32 32 32 31 29 27 25 22 20 17 14 11 8 5 3 3 4 6 8 9 11 13 15 17 18 18 20 22 24 26 29 32 38 43 46 48 47 46 44 43
36 34 33 31 30 30 29 27 26 25 23 20 17 14 11 8 7 5 5 5 5 7 8 10 12 13 14 16 18 19 21 23 26 30 33 38 42 45 46 45 45 44 42
35 33 31 29 28 28 27 26 25 24 22 20 17 15 12 10 8 7 6 6 7 8 9 9 10 11 13 14 16 17 19 22 26 31 34 37 41 45 45 45 45 43 41
33 31 29 27 26 25 25 25 24 22 20 19 18 16 13 11 9 8 7 6 5 6 6 7 9 10 11 13 15 16 18 21 25 31 35 39 42 43 45 45 45 43 40
31 29 27 25 24 23 23 22 22 21 19 19 18 17 14 12 11 9 7 6 5 2 2 5 7 8 9 11 13 16 19 23 27 31 36 40 41 42 44 45 44 42 39

GEFSGL_500_meanwind_036.txt.gz
Wind_Speed
36 36 36 37 38 39 39 40 40 40 40 40 40 40 40 41 41 41 41 41 41 41 42 42 42 43 42 41 39 38 37 35 35 37 37 38 41 43 44 44 43 41 39
37 37 38 39 40 40 41 41 41 40 40 39 39 39 40 41 42 43 43 44 44 44 44 45 45 46 46 45 44 42 41 39 37 36 38 39 42 44 46 45 44 43 41
38 39 40 41 41 42 41 41 41 40 39 39 39 39 40 41 42 43 45 45 46 46 47 47 48 49 48 49 49 48 46 44 41 39 39 41 43 45 47 47 46 45 43
40 40 41 42 43 42 42 41 40 39 38 38 39 39 40 41 42 43 44 46 47 47 48 49 50 51 51 52 53 53 51 49 47 44 42 42 44 46 47 48 47 46 45
41 42 43 43 43 43 42 41 40 38 38 38 39 39 40 41 42 43 44 46 47 48 49 50 52 53 54 55 56 57 56 54 52 49 47 44 46 47 48 48 48 48 47
43 44 44 44 44 44 42 41 39 38 39 39 40 40 40 40 41 42 43 44 45 46 48 50 52 53 55 57 59 60 60 59 57 55 53 48 47 48 49 50 49 49 48
45 46 46 46 45 44 43 41 39 39 39 39 39 39 39 39 40 40 41 42 42 44 46 48 50 52 54 57 60 62 63 63 62 60 58 54 50 50 49 50 50 50 50
47 47 48 47 46 45 43 41 40 39 40 39 39 38 38 38 39 40 40 40 41 42 44 45 47 49 52 55 59 63 65 66 65 64 62 60 57 54 51 51 52 52 53
47 48 48 48 46 44 43 41 40 40 40 39 39 38 37 38 39 38 38 38 38 39 41 42 44 47 49 52 56 60 65 67 69 68 67 66 62 58 55 54 54 53 53
48 48 48 48 46 44 43 41 41 41 40 39 38 38 37 37 36 35 34 34 35 36 36 38 41 43 46 50 53 57 61 66 69 71 70 69 66 63 58 54 53 53 53
48 48 48 48 47 45 43 41 41 40 39 39 38 37 36 34 34 32 31 30 30 30 30 31 34 37 41 46 49 53 57 62 66 70 72 71 69 66 62 57 54 53 53
47 48 48 48 47 45 43 41 41 40 39 38 36 34 33 33 31 28 26 25 24 23 23 23 25 29 34 40 45 49 53 58 62 66 70 71 70 67 63 60 57 54 53
47 47 47 48 47 45 43 41 40 39 38 36 34 33 32 31 28 25 22 20 18 16 15 15 18 22 27 34 39 43 48 52 56 60 64 67 69 68 64 60 58 57 54
47 46 47 47 46 44 42 41 39 38 37 34 33 31 30 28 25 21 18 17 14 11 9 9 13 17 23 29 34 39 43 46 50 54 59 63 65 66 64 60 57 56 55
46 46 46 46 45 44 42 40 38 37 36 33 31 30 28 26 23 19 16 13 10 7 4 4 8 13 20 26 31 36 40 42 43 48 53 58 61 62 63 61 58 55 54
45 45 45 45 44 43 41 39 37 36 35 32 30 28 26 23 21 17 14 10 7 4 2 3 6 11 16 21 26 31 37 40 41 44 49 53 56 58 59 58 57 55 53
45 44 44 44 43 42 40 37 35 34 33 31 29 27 24 21 18 15 12 9 6 3 1 3 6 9 13 18 22 27 32 36 40 42 46 49 52 56 58 57 56 54 53
44 43 43 42 42 41 39 37 34 32 31 29 28 25 22 20 17 13 10 8 5 2 1 2 5 9 12 16 19 23 28 33 37 40 44 48 51 54 56 57 56 54 52
43 42 42 41 40 39 37 35 33 31 30 28 26 23 21 19 16 12 9 7 5 4 3 3 5 7 11 14 18 21 25 31 35 40 43 45 49 53 55 55 56 55 51
42 41 40 39 38 37 36 34 32 30 28 27 25 23 20 18 16 13 10 7 5 4 5 6 6 8 10 13 16 20 23 28 32 37 41 44 48 52 53 54 55 54 52
41 39 38 37 36 35 34 32 31 28 27 26 24 22 20 17 16 14 11 8 6 5 6 7 8 9 11 13 15 19 22 26 30 35 39 43 46 50 52 53 53 54 53
39 38 36 35 34 33 32 30 29 27 26 25 24 22 20 18 16 14 11 9 7 7 7 8 9 11 13 14 15 17 20 24 28 32 37 41 45 48 51 53 54 53 53
36 35 34 33 32 31 30 29 27 25 25 25 24 23 20 18 16 14 11 9 8 8 8 9 10 12 13 15 17 19 20 22 26 30 33 38 42 46 49 51 53 52 51
34 34 32 31 31 30 28 27 26 24 23 24 24 23 21 19 16 13 11 9 7 7 8 10 11 12 14 15 17 20 21 23 24 28 31 35 39 43 47 50 53 53 51
33 32 30 29 28 28 26 25 24 23 22 22 22 22 20 19 17 14 11 8 7 6 8 9 11 13 14 16 18 20 22 24 25 27 30 32 36 40 45 49 51 51 51
30 29 27 26 26 26 24 23 23 22 20 20 20 20 20 19 17 14 12 9 6 5 6 7 9 11 14 16 17 19 21 23 25 27 30 32 35 39 43 47 49 50 50

GEFSGL_500_meanwind_042.txt.gz
Wind_Speed
30 31 31 33 34 34 35 36 37 37 38 38 38 38 39 39 38 38 38 38 38 38 38 39 40 41 42 42 42 41 40 40 39 40 40 41 40 41 43 44 46 47 47
32 33 34 35 36 38 38 39 39 40 40 40 39 39 38 38 37 37 37 37 37 37 38 38 39 41 42 43 43 43 43 43 42 42 42 41 40 40 43 43 45 48 48
35 36 37 38 39 40 42 42 42 42 42 42 41 40 39 37 37 36 36 36 36 36 37 38 39 41 42 44 45 45 45 45 45 45 44 43 42 41 42 44 46 48 49
37 38 39 40 41 43 44 44 45 44 44 43 42 41 39 37 36 36 35 35 36 36 37 37 39 40 42 44 45 46 47 48 48 47 47 46 44 43 43 45 45 48 50
38 39 40 41 43 44 45 46 46 46 45 44 43 41 39 38 37 37 36 35 35 36 37 38 39 40 42 45 46 47 49 50 50 50 50 49 47 45 44 46 46 48 50
40 41 41 43 44 45 46 47 47 46 46 45 43 41 40 39 38 37 36 35 35 35 36 37 39 40 42 44 46 49 50 51 52 53 53 52 51 48 46 47 47 48 50
41 41 42 44 45 46 47 47 47 47 46 45 43 41 40 39 38 37 36 34 35 35 36 37 38 39 41 43 45 48 50 52 54 55 56 55 54 52 49 47 47 48 50
42 43 44 45 46 47 48 48 47 46 46 44 42 41 40 39 38 37 36 35 35 35 36 37 38 39 40 41 44 47 50 52 55 56 57 58 57 56 53 49 48 48 50
43 44 45 46 47 48 48 48 47 46 45 44 42 41 40 39 38 37 36 35 34 34 35 36 37 38 40 41 43 45 48 52 55 58 59 59 59 58 57 53 51 51 50
44 45 46 47 48 49 48 47 46 45 44 43 42 40 39 39 38 37 36 34 33 33 33 34 35 36 38 40 41 44 47 50 54 58 61 62 61 60 59 56 54 52 51
45 46 48 49 50 50 48 47 45 44 43 42 41 40 39 38 37 35 34 33 32 32 32 32 32 33 35 37 39 42 46 50 54 58 61 63 63 63 62 60 56 55 53
47 48 50 51 51 49 47 45 44 43 42 41 40 38 38 37 36 34 33 32 31 29 29 29 29 29 31 33 35 39 44 49 53 57 60 63 64 64 64 63 60 56 54
50 51 52 51 51 49 46 44 43 42 41 40 38 37 36 36 35 34 32 31 28 27 26 26 25 25 26 28 31 35 39 45 50 54 57 60 63 65 66 65 63 60 57
52 52 52 51 50 48 45 43 42 41 39 38 37 36 35 35 34 33 31 28 26 25 23 21 20 20 21 23 25 29 34 40 46 51 55 59 62 65 67 67 66 64 61
54 54 53 51 49 47 44 42 41 40 38 37 36 35 34 33 32 31 29 27 24 22 20 19 17 17 17 17 18 22 27 35 41 47 52 56 60 63 66 67 67 66 65
55 54 52 50 48 45 42 41 40 38 37 36 35 34 33 33 31 30 28 26 22 20 19 17 15 14 14 13 13 15 20 27 34 41 46 51 55 59 63 66 67 66 65
56 54 51 49 46 43 40 38 37 37 36 35 35 34 33 32 31 28 26 25 22 19 17 16 14 13 12 11 9 10 13 19 27 34 40 44 49 54 59 63 65 65 64
56 53 50 47 44 41 39 37 36 35 34 34 34 33 33 32 30 27 25 23 20 18 16 15 13 11 10 8 7 8 10 15 21 28 33 38 43 47 53 58 61 62 62
54 51 48 45 42 39 38 37 36 35 33 32 32 32 32 31 29 26 24 21 19 17 15 13 12 10 9 7 5 7 10 14 18 24 27 31 36 41 46 52 56 59 60
52 49 46 43 40 38 37 36 35 33 32 32 31 30 30 30 28 25 23 21 19 16 13 12 10 9 8 7 6 7 10 13 17 22 24 27 31 36 41 47 52 55 56
50 47 44 41 39 37 35 34 33 32 31 31 31 30 30 29 27 24 22 21 19 16 13 11 10 9 8 8 8 8 10 13 16 20 23 25 29 33 37 42 48 51 53
48 45 41 39 36 34 33 33 31 30 30 30 30 29 28 27 26 23 22 20 18 15 13 12 11 11 9 8 9 10 11 12 15 19 22 24 28 32 35 39 44 49 51
45 42 39 36 34 32 32 31 30 29 29 29 28 27 26 25 24 23 21 19 16 14 12 12 11 11 12 12 11 11 12 14 15 18 20 23 27 32 34 37 42 45 49
42 39 36 34 32 31 30 29 28 27 27 27 26 25 24 24 22 21 21 19 16 13 12 12 12 12 12 12 12 12 13 15 16 17 20 22 26 30 34 36 39 43 47
38 35 33 31 29 29 28 26 25 25 25 24 24 23 22 21 21 20 20 18 15 13 12 11 11 12 13 13 13 13 14 15 17 18 20 22 24 27 31 35 38 41 45
34 32 30 29 28 27 25 23 23 23 22 22 22 21 20 19 19 19 19 17 15 13 11 10 10 10 11 13 13 14 15 16 17 18 19 21 23 26 28 32 35 39 42

GEFSGL_500_meanwind_048.txt.gz
Wind_Speed
20 21 22 23 24 25 25 27 28 29 30 31 33 33 34 35 35 35 35 35 35 35 36 36 37 38 38 40 41 42 43 43 43 43 43 43 43 43 44 45 46 46 46
22 23 24 25 26 27 28 29 30 32 33 34 36 36 37 38 38 37 37 36 35 35 36 36 36 37 37 39 40 41 42 43 44 44 45 45 45 44 44 45 46 47 45
24 25 26 27 28 29 30 31 33 35 36 38 39 40 40 40 40 39 37 36 35 35 35 35 35 35 36 37 39 40 41 43 43 44 46 46 46 45 45 45 46 46 45
26 27 28 29 30 31 33 34 36 37 39 40 41 42 42 42 41 39 37 37 36 35 35 34 34 34 35 36 37 39 40 42 43 44 45 47 46 46 46 46 46 46 46
28 28 29 31 32 33 35 37 39 40 42 43 44 44 43 42 41 39 37 36 36 35 35 34 34 34 34 35 36 37 39 40 42 44 45 46 48 47 47 46 46 46 46
29 30 31 32 34 35 37 39 41 42 44 45 45 44 43 42 40 39 37 36 35 35 34 34 34 33 34 35 36 37 39 40 42 44 45 47 48 48 48 48 46 45 44
31 31 32 34 35 37 39 41 43 44 45 45 45 44 42 41 40 38 37 35 35 34 33 33 33 33 33 34 35 37 38 40 42 44 45 47 49 50 50 50 49 47 45
32 32 34 35 37 39 41 44 45 46 46 46 45 43 41 40 38 37 35 34 34 33 32 32 32 33 33 33 34 35 37 39 41 43 45 47 50 51 51 51 50 49 46
33 34 35 37 39 41 44 46 47 47 47 46 44 42 39 38 37 35 34 33 32 32 32 31 31 32 32 32 33 34 36 39 42 44 45 48 50 51 52 52 51 51 48
35 36 38 40 42 44 46 48 49 48 47 45 43 41 38 37 36 35 33 32 32 31 31 31 31 31 32 32 33 34 35 38 41 44 46 47 50 52 53 53 53 52 51
38 39 41 42 44 47 49 50 50 49 47 44 42 39 37 35 34 33 32 32 31 31 31 31 31 30 31 32 33 34 35 36 38 42 45 47 49 51 53 54 54 55 53
41 42 43 44 47 50 51 51 51 49 46 43 40 37 36 34 34 33 32 32 31 31 30 30 30 30 30 30 31 32 34 35 36 39 42 46 48 50 52 54 55 56 56
45 45 46 47 49 51 52 52 51 49 45 42 39 36 35 34 34 32 32 31 31 30 29 29 29 29 28 28 28 29 30 32 34 36 39 43 47 50 51 53 55 58 58
49 48 49 49 51 52 52 52 51 48 45 41 38 36 35 34 33 32 31 31 30 29 28 28 28 27 27 27 27 27 28 29 32 34 37 40 45 49 50 53 55 57 58
51 51 52 53 53 53 53 52 50 47 44 40 37 35 34 33 33 32 32 31 30 29 28 27 27 26 26 25 25 25 26 27 29 32 36 38 42 46 50 52 54 57 58
54 54 54 54 53 53 52 50 48 45 43 40 37 35 33 32 32 32 31 30 30 28 27 26 25 24 24 23 24 23 24 25 26 28 32 35 39 43 48 52 54 56 57
55 55 55 56 55 53 51 49 47 44 41 38 36 34 32 31 31 31 30 29 28 26 25 25 24 23 23 22 22 22 22 22 23 25 28 31 35 39 45 50 53 54 56
57 58 57 56 54 53 50 47 44 41 39 36 35 34 32 31 31 31 30 28 27 25 24 24 23 22 20 20 20 20 20 20 20 21 24 27 31 36 42 47 51 52 54
59 58 57 55 53 51 48 45 43 40 37 35 34 33 32 31 30 30 28 27 26 25 24 23 22 20 19 18 18 18 17 17 18 18 20 23 27 32 38 43 48 51 53
59 58 56 54 52 49 46 43 41 38 35 34 33 32 30 29 29 28 26 26 25 24 23 21 20 18 18 17 17 16 15 15 15 16 17 20 24 29 35 40 44 47 50
59 57 54 52 49 46 43 40 38 36 34 32 31 30 28 28 27 26 25 25 24 23 21 20 18 17 17 16 16 15 14 14 14 14 15 18 21 26 31 37 41 44 48
57 54 52 49 46 43 40 37 35 33 31 30 29 27 26 26 25 24 24 24 22 21 20 19 17 16 15 15 15 15 14 14 14 14 14 16 18 23 29 33 38 41 45
53 50 47 44 42 39 36 34 32 30 29 27 26 26 25 24 24 23 22 22 21 20 19 18 17 16 15 15 15 15 14 14 14 14 15 16 18 22 27 31 35 39 42
48 46 43 41 38 36 33 31 29 28 26 25 25 24 23 23 22 22 21 20 20 20 19 18 17 16 15 14 14 14 14 14 14 15 15 16 18 21 25 29 33 37 40
45 42 40 37 34 32 30 28 26 25 24 23 23 22 21 21 20 20 20 19 19 19 19 18 16 15 14 13 13 13 13 14 15 16 17 18 19 21 24 27 31 34 37
40 38 36 33 30 27 26 25 24 23 22 21 20 20 20 19 19 18 18 18 18 18 17 16 14 13 13 13 13 13 14 14 15 17 18 19 20 22 24 28 30 33 35

GEFSGL_500_meanwind_054.txt.gz
Wind_Speed
18 19 19 20 20 20 21 21 22 23 24 26 27 29 30 31 32 33 34 35 36 37 37 38 38 39 39 40 40 40 41 41 41 40 42 43 43 43 44 44 44 44 44
19 20 21 21 22 22 22 22 23 24 26 27 29 31 32 33 34 35 36 37 38 38 39 39 39 40 39 40 40 40 41 41 41 41 42 43 44 45 45 45 46 45 45
20 21 22 23 23 24 24 25 26 27 29 30 32 33 34 35 36 37 38 39 39 39 40 40 40 39 39 39 39 40 40 41 41 41 41 43 44 45 45 45 46 46 45
21 23 24 25 25 26 27 28 29 30 32 33 34 35 36 37 38 39 40 41 41 40 40 39 39 38 37 37 38 38 39 40 40 40 41 41 43 44 45 45 45 46 46
24 25 26 27 28 28 29 30 32 33 34 35 36 37 38 40 40 41 42 42 41 40 39 38 37 36 36 36 36 36 37 38 38 39 39 40 41 42 44 45 45 45 45
26 27 28 29 30 31 32 33 34 36 37 38 38 39 41 42 42 42 42 42 41 39 38 37 36 35 35 34 34 35 35 36 37 38 38 38 39 40 42 43 44 44 43
27 29 29 30 31 33 34 35 37 38 39 40 41 42 43 44 43 43 43 42 40 39 37 36 35 34 34 33 33 34 34 35 35 36 36 36 37 39 40 42 43 44 43
29 30 31 32 33 35 36 38 39 40 41 42 43 45 45 45 45 44 43 42 40 38 37 36 35 34 34 33 32 32 32 33 34 34 34 35 36 37 39 41 42 43 44
32 33 34 35 36 38 39 41 42 44 43 43 45 47 47 47 46 45 44 41 39 38 37 36 34 33 33 33 32 31 31 32 33 33 33 34 35 36 38 40 42 43 43
35 36 37 39 40 42 43 43 45 45 45 45 47 49 48 48 47 46 44 41 39 37 36 35 34 32 32 32 32 32 32 32 33 33 33 34 34 36 37 38 40 43 43
39 40 41 42 44 45 46 46 47 47 47 47 48 49 49 49 48 46 44 41 39 36 35 34 33 33 32 33 33 33 33 33 32 33 33 33 34 34 36 38 39 41 44
43 44 46 47 48 49 48 48 48 48 49 50 50 50 49 48 46 44 43 40 38 36 34 33 33 33 33 33 33 33 33 32 32 32 32 33 33 34 35 36 39 41 43
46 47 48 49 50 50 50 50 50 50 52 52 53 52 50 49 47 44 41 39 38 36 34 33 33 33 33 32 32 32 31 31 31 31 31 32 32 33 34 34 36 40 43
48 49 50 51 51 52 52 53 53 53 54 54 54 54 51 49 47 44 41 38 37 35 34 33 33 33 32 32 31 30 30 30 30 31 31 31 31 32 33 33 34 37 40
50 51 52 53 53 54 54 55 55 55 55 55 54 53 51 49 47 44 41 39 37 35 33 32 32 32 31 30 29 28 28 28 28 28 28 28 29 30 31 33 34 35 38
52 53 54 55 55 56 57 56 56 57 56 55 53 52 50 47 45 43 41 38 36 35 33 32 31 31 30 29 28 27 27 27 27 26 26 27 27 28 29 31 33 34 36
53 55 56 56 57 58 59 59 59 59 57 54 51 50 47 44 42 41 39 36 35 34 32 31 30 29 28 27 27 27 26 26 26 26 25 26 27 28 29 30 32 33 35
56 57 59 59 60 60 61 61 60 58 56 53 51 48 44 42 40 39 37 35 34 33 31 30 29 28 27 26 26 26 25 25 25 24 24 24 25 26 27 29 30 32 34
59 61 61 62 62 62 62 61 59 56 53 50 48 45 42 40 38 37 36 34 33 31 30 28 28 27 26 26 25 25 25 24 24 23 23 23 23 24 25 27 29 31 33
62 63 64 64 64 63 61 59 56 53 50 48 45 42 39 37 35 34 33 32 30 29 28 28 27 26 26 25 25 24 23 23 23 23 23 23 23 24 24 25 26 29 31
65 65 65 64 63 61 58 56 53 50 47 43 40 38 36 34 33 32 31 29 28 28 28 27 27 26 26 25 25 24 23 23 22 22 22 22 21 22 23 24 25 27 30
66 65 64 62 60 57 54 51 48 45 42 39 36 34 33 31 30 30 29 28 28 27 27 27 26 26 25 25 25 24 24 23 22 22 21 21 21 21 22 22 23 26 28
63 62 60 57 55 51 48 44 42 39 37 35 33 32 31 29 28 27 27 27 26 26 26 26 26 25 25 25 25 24 23 23 22 22 21 21 21 21 21 22 22 24 27
58 55 53 51 48 44 41 38 36 34 32 32 30 29 28 27 26 25 25 25 25 25 25 25 25 25 25 25 24 23 23 22 21 21 21 21 20 21 21 21 22 23 25
51 49 47 44 41 38 35 32 30 29 29 28 27 26 25 24 24 23 23 23 23 23 23 24 24 24 24 23 23 22 22 21 21 21 20 20 20 20 20 21 21 22 23
46 43 41 39 35 32 30 28 28 26 26 25 24 23 22 22 22 21 21 21 21 22 22 23 23 22 22 22 21 21 21 20 21 21 21 20 20 19 19 20 21 22 24

GEFSGL_500_meanwind_060.txt.gz
Wind_Speed
9 10 11 12 13 14 15 16 17 18 19 20 21 22 24 25 26 27 27 28 29 29 30 31 31 32 32 33 34 35 35 35 35 36 38 39 40 40 41 41 41 42 43
11 12 13 14 15 16 17 18 19 20 21 23 24 25 26 27 28 29 29 30 31 32 32 33 33 33 34 35 35 36 37 37 37 37 39 41 41 42 42 43 43 43 44
15 16 17 17 18 19 20 20 21 23 24 25 26 27 28 29 30 31 31 32 33 33 34 34 35 35 36 36 36 37 37 37 37 37 38 40 41 42 43 43 43 44 44
18 19 20 20 21 22 22 23 24 25 26 27 28 29 31 32 32 33 33 34 34 35 35 36 36 37 37 37 37 37 37 37 37 36 37 38 40 41 42 43 43 44 45
20 22 23 23 24 24 25 26 26 27 29 30 31 32 33 34 34 35 35 35 36 36 37 37 38 38 38 38 37 37 37 36 36 36 36 37 38 39 40 41 42 43 44
23 24 25 26 27 27 28 29 29 30 31 32 33 34 35 35 36 36 36 36 37 37 38 39 39 39 39 38 38 37 37 36 36 36 36 36 36 38 38 39 39 41 42
25 27 28 29 30 30 31 31 32 33 34 34 35 36 37 38 37 37 37 38 38 38 39 39 40 40 39 39 38 37 37 37 36 36 35 35 36 37 37 37 38 39 39
28 30 31 32 32 33 33 34 35 36 37 37 38 39 40 40 39 39 40 39 39 39 40 41 41 41 40 39 38 37 37 37 36 35 34 34 35 36 36 37 38 38 39
31 32 33 34 34 35 36 37 38 39 39 40 40 41 41 42 42 42 42 41 41 41 42 42 42 41 40 39 37 37 37 37 36 35 33 33 34 35 35 36 36 37 37
33 34 35 36 37 38 39 40 41 42 42 42 42 43 43 43 44 44 44 43 43 44 44 44 43 42 40 38 37 36 36 36 36 34 34 33 34 35 35 35 36 36 36
36 36 37 38 39 40 41 43 44 45 45 45 45 44 44 45 45 46 46 46 45 45 45 44 43 42 40 38 37 36 35 35 34 34 34 34 34 35 36 36 36 36 36
38 39 40 40 42 43 44 45 46 47 47 47 47 47 47 47 48 48 48 48 48 47 46 45 43 42 40 38 37 36 36 34 34 33 33 33 33 34 34 35 35 36 36
41 42 43 44 45 46 47 48 48 49 49 49 49 49 49 50 50 50 50 51 50 48 46 45 43 41 40 38 37 36 35 34 33 32 32 32 32 32 33 33 34 35 35
45 45 46 47 48 49 50 51 51 51 52 51 52 52 52 53 53 53 52 52 51 49 46 44 42 40 39 37 36 35 34 33 32 31 31 31 31 31 31 32 33 34 34
47 48 49 50 51 52 52 53 54 54 54 55 55 55 56 55 55 55 54 53 51 49 46 43 41 40 38 37 35 34 33 32 31 31 30 30 30 30 30 31 32 33 33
48 49 51 52 53 54 55 56 56 57 57 58 58 58 58 57 56 56 55 53 50 49 45 42 40 39 37 35 34 32 32 31 30 30 29 29 29 30 30 31 31 32 32
50 52 53 55 56 57 58 58 58 59 60 60 61 61 59 57 56 55 53 51 49 47 44 41 39 38 36 34 32 31 30 30 29 29 29 28 28 29 29 30 30 30 31
53 55 56 58 59 60 60 61 62 62 62 62 62 61 59 58 56 54 52 50 47 44 42 40 38 36 35 33 31 30 29 28 28 28 28 27 28 28 28 28 29 29 30
57 58 59 60 61 62 63 64 64 64 64 63 62 60 58 56 54 52 49 46 44 42 40 39 37 35 33 31 29 29 28 28 28 28 27 27 27 27 27 27 28 28 29
59 60 61 62 63 64 64 64 64 64 63 61 59 57 54 52 49 47 45 43 41 39 37 35 34 32 31 30 29 29 28 28 28 28 28 28 27 27 26 26 26 27 28
61 62 63 64 63 63 63 63 62 60 58 56 53 50 48 46 44 42 40 38 36 34 33 32 30 29 29 29 28 29 28 28 27 27 27 27 26 26 25 25 26 26 27
63 63 62 62 61 60 59 57 55 53 51 49 46 43 40 39 37 35 33 33 32 31 30 29 27 27 27 27 27 27 27 27 27 26 25 25 25 25 25 26 26 26 27
60 59 58 57 56 54 52 50 48 46 44 41 38 36 35 33 31 30 29 28 28 27 27 26 25 26 26 26 26 26 27 27 26 26 25 25 25 25 25 25 25 26 26
54 53 52 52 50 49 47 45 43 40 38 34 32 31 29 28 28 27 26 25 24 24 23 23 24 24 24 25 25 25 25 25 25 25 25 25 25 25 25 25 25 25 25
49 49 48 47 45 44 41 40 37 34 30 27 25 25 25 24 23 22 22 21 21 21 21 21 21 22 23 23 24 24 25 25 24 24 24 24 24 24 24 24 25 24 24
44 44 44 42 40 38 36 34 30 26 23 21 20 19 20 19 18 17 17 18 18 18 19 20 20 21 21 22 22 23 24 24 23 23 23 23 23 23 22 22 23 23 23

GEFSGL_500_meanwind_066.txt.gz
Wind_Speed
10 10 10 9 9 10 11 12 13 14 15 17 18 18 19 21 22 22 23 23 24 24 24 25 25 25 25 25 25 26 27 27 28 30 32 33 33 34 35 36 37 38 38
12 12 12 12 13 13 14 16 17 17 18 19 20 21 22 23 24 24 24 25 26 26 27 27 28 28 27 27 27 28 29 29 29 30 32 33 34 35 36 38 39 40 41
14 14 15 15 16 17 18 19 20 21 22 23 23 24 25 25 26 26 27 27 28 28 29 30 30 30 30 30 30 31 31 31 31 31 32 34 35 36 37 38 40 41 42
16 17 17 18 19 20 21 22 23 24 25 26 26 27 28 28 28 28 29 30 30 31 32 32 32 32 32 32 32 32 32 32 33 32 33 35 36 37 38 39 40 41 42
18 19 20 20 21 23 24 25 27 28 29 29 29 30 30 31 31 31 31 32 33 34 34 34 34 34 34 33 34 34 34 35 35 35 35 36 37 39 39 40 40 41 42
20 21 22 23 24 25 27 28 29 30 31 32 32 33 33 34 34 34 34 35 35 36 36 36 36 36 36 36 36 36 37 37 38 38 38 38 39 41 41 41 41 40 41
23 24 25 26 27 28 30 31 32 34 35 35 35 36 36 37 37 37 37 38 38 38 38 39 39 38 38 38 38 39 39 39 40 40 39 40 41 42 42 42 41 41 41
25 26 28 29 30 31 32 33 35 37 38 38 39 39 39 40 40 40 41 41 41 41 41 41 41 41 41 41 40 40 41 41 42 42 41 41 42 43 43 42 42 41 41
28 30 31 32 33 35 36 36 38 40 41 42 42 42 42 42 43 44 45 45 44 44 44 43 43 43 44 43 43 42 43 43 44 43 42 42 42 42 43 42 42 41 40
32 32 34 35 37 39 40 40 41 43 45 46 46 46 46 46 47 48 49 49 48 47 47 46 46 46 47 46 46 45 45 45 46 45 44 43 42 42 42 42 41 40 39
35 35 36 38 40 42 43 44 45 46 47 48 49 49 49 50 50 51 52 52 51 51 50 49 49 50 49 49 49 48 48 47 46 46 44 43 43 43 43 42 41 40 39
37 38 39 41 42 44 46 46 48 49 50 51 52 52 52 53 53 53 54 55 55 54 53 53 53 53 53 53 52 51 50 49 48 46 44 43 43 43 42 41 40 40 39
40 41 43 44 45 46 48 49 50 51 52 53 54 54 54 55 55 56 57 57 58 58 57 56 56 57 56 55 54 53 52 50 48 46 43 42 43 43 42 40 40 39 38
42 44 45 46 48 49 50 51 52 53 54 56 56 57 57 58 58 59 60 60 61 61 61 60 60 60 58 57 55 54 52 50 48 45 43 42 42 41 40 40 39 38 37
44 46 47 48 50 51 52 54 55 56 58 59 60 61 62 62 62 63 64 64 64 64 64 63 62 61 59 57 55 53 51 49 47 45 43 42 41 40 39 39 38 37 36
46 48 49 51 52 54 55 56 58 60 61 63 64 65 65 66 66 67 67 67 67 67 66 65 63 61 59 56 54 52 50 48 46 45 43 41 40 39 39 38 37 36 35
48 50 52 54 55 57 58 59 60 61 63 65 66 68 68 69 69 69 69 69 68 67 66 64 61 59 57 54 53 51 49 46 44 43 41 40 39 39 38 37 36 35 35
51 53 55 56 57 59 60 62 63 64 65 66 67 69 70 70 70 70 69 69 67 66 64 61 59 56 54 52 50 48 46 44 43 42 40 39 38 38 36 35 35 35 35
54 55 57 58 60 62 63 65 66 67 68 68 68 68 68 67 66 65 64 63 61 59 58 56 53 51 50 48 46 44 43 42 42 41 39 38 37 36 35 34 34 34 33
57 58 60 61 63 64 65 66 66 66 66 66 65 65 64 62 60 58 57 55 53 51 49 47 45 44 43 41 40 39 39 39 38 37 36 35 34 34 34 34 33 33 32
59 60 62 63 63 64 64 63 63 62 62 61 60 59 58 56 54 52 49 47 45 42 40 39 38 37 36 35 35 34 34 34 34 34 33 33 33 33 33 33 33 32 32
60 60 61 61 61 60 59 59 58 57 56 54 53 51 49 47 44 41 39 37 35 33 33 32 31 30 29 28 28 29 30 30 30 31 31 31 31 31 31 31 31 31 31
58 58 57 56 55 54 53 52 51 50 49 47 44 41 39 37 35 33 31 30 28 26 25 23 22 22 23 24 24 24 25 26 27 28 29 29 30 30 30 30 30 30 30
53 52 51 50 49 48 48 47 46 44 42 40 37 34 32 29 26 24 22 21 20 20 19 18 19 19 20 20 20 21 22 24 26 26 27 27 28 28 29 29 29 29 29
47 46 45 44 44 44 43 42 40 38 36 33 31 29 26 23 19 17 15 15 14 15 15 15 15 16 17 18 18 20 21 23 23 24 25 26 27 28 28 28 28 29 29
42 42 41 41 41 40 38 37 35 32 30 27 26 23 20 17 15 13 12 11 10 10 11 11 12 12 13 14 16 18 19 21 22 23 24 25 26 26 27 27 28 28 28

GEFSGL_500_meanwind_072.txt.gz
Wind_Speed
11 12 12 12 13 13 13 14 14 15 16 16 17 17 18 18 19 20 20 21 21 21 21 21 21 22 22 22 23 23 24 24 25 26 26 26 26 26 26 27 28 29 30
13 14 15 15 16 16 17 17 18 19 20 20 21 21 21 22 22 23 23 23 23 23 24 24 24 24 24 25 25 25 26 26 27 28 29 29 28 28 28 28 29 29 31
16 17 17 18 19 20 21 21 22 23 23 24 24 24 24 25 25 25 25 26 26 26 26 26 27 27 27 27 27 28 28 28 28 29 30 31 31 30 30 30 30 30 31
18 19 20 21 21 22 23 24 25 26 27 27 27 27 27 27 28 28 28 28 29 29 29 29 29 29 30 30 30 30 30 30 31 31 31 32 32 33 33 33 32 32 32
19 20 21 22 23 24 26 27 28 28 29 29 29 29 29 29 30 30 30 31 32 32 32 32 32 32 32 32 32 33 33 33 33 33 33 34 35 35 35 35 35 35 34
22 23 23 24 25 26 28 29 29 30 31 31 31 31 31 31 32 32 33 34 34 34 34 35 35 35 35 35 36 36 36 36 36 36 36 36 37 38 38 38 37 37 37
24 26 27 27 28 29 30 31 32 32 33 33 33 34 34 34 35 36 37 38 37 36 37 38 38 39 39 39 39 39 39 39 40 40 39 39 40 40 40 40 40 40 40
28 29 30 31 31 32 33 33 35 35 36 36 36 37 37 37 39 40 42 42 41 40 41 41 41 42 43 43 44 43 43 42 43 44 43 42 42 43 43 43 42 42 42
31 32 32 33 34 35 36 36 37 38 38 39 40 41 41 42 43 44 45 46 46 45 45 45 46 46 46 47 48 48 46 46 46 46 45 44 44 45 46 46 45 45 44
34 34 34 35 36 37 38 39 40 40 41 42 43 44 45 46 47 48 49 50 50 50 50 50 50 49 50 50 52 52 50 49 50 50 48 47 47 47 48 48 48 47 47
37 37 37 38 38 40 41 42 43 44 44 45 46 47 49 49 50 51 52 53 53 54 54 54 54 53 53 54 55 55 54 53 53 53 52 51 50 50 50 51 50 49 49
38 39 39 40 41 42 44 45 46 46 47 48 49 50 52 52 53 54 55 56 56 57 57 57 58 58 58 58 58 58 58 58 57 56 56 55 54 53 53 52 51 50 50
39 40 40 42 43 44 45 46 47 48 49 50 52 53 54 55 56 57 58 59 60 61 61 61 61 62 62 62 62 62 62 62 61 60 59 57 57 56 55 54 53 52 51
40 40 42 43 44 45 46 48 49 50 51 52 54 55 57 58 59 60 61 62 63 64 64 65 65 65 66 66 66 65 64 64 64 63 61 60 58 58 56 55 54 53 52
39 41 42 44 45 46 48 49 51 52 54 56 57 59 60 61 62 64 65 65 67 68 68 69 69 69 69 69 68 67 66 66 65 63 62 60 59 58 57 55 54 52 51
41 42 44 45 47 48 50 52 54 56 57 59 61 63 64 66 67 68 69 70 71 72 72 71 71 71 70 69 68 67 66 65 64 62 61 60 58 56 55 54 52 51 50
43 44 46 48 50 51 53 55 57 59 61 63 65 66 68 70 71 72 73 73 73 73 72 71 70 69 68 67 66 65 63 62 61 59 58 56 54 53 52 51 51 49 48
46 48 49 51 53 55 57 59 61 63 65 66 68 69 70 71 71 72 71 71 69 69 68 67 66 65 64 63 61 60 58 56 55 54 52 51 51 51 50 49 49 47 45
50 52 54 56 57 59 61 63 65 66 67 68 69 69 69 68 66 65 64 63 62 61 60 58 57 56 55 54 53 52 50 49 48 47 47 47 47 47 47 46 45 44 43
53 55 57 59 61 62 64 65 65 66 66 66 65 64 62 59 58 56 55 54 53 51 50 48 46 45 44 43 43 42 41 40 40 40 39 41 41 41 41 41 42 42 41
56 58 59 60 61 62 63 63 62 61 60 59 57 55 53 52 50 49 47 46 44 42 40 38 37 36 35 34 33 33 32 32 32 33 34 35 36 37 36 35 35 36 37
57 58 59 59 59 58 58 56 55 54 53 51 49 47 46 45 44 41 39 37 35 33 31 30 29 27 26 24 23 23 24 24 25 26 27 29 30 31 30 30 31 32 33
55 55 55 54 53 51 50 50 49 48 46 44 43 41 40 38 35 33 32 30 28 26 25 24 22 20 18 17 17 16 17 18 20 21 22 23 24 25 27 27 28 29 30
50 49 48 47 46 46 46 46 44 42 41 40 38 36 34 32 30 29 26 24 22 20 19 18 16 15 15 14 13 14 14 15 16 17 18 19 20 21 22 24 25 26 28
45 44 43 43 42 42 41 40 38 37 36 34 32 30 28 26 24 23 21 19 17 16 15 13 12 11 11 10 10 11 12 13 13 15 16 17 18 19 21 22 23 25 27
40 39 39 38 38 37 36 34 33 31 29 27 25 24 22 20 18 17 16 15 14 13 12 11 10 9 9 8 8 10 10 11 12 13 15 17 18 19 21 22 23 25 26

GEFSGL_500_meanwind_078.txt.gz
Wind_Speed
10 11 12 12 13 14 14 14 14 15 15 15 15 16 16 17 18 19 20 21 22 22 23 23 24 24 25 25 25 25 26 26 26 27 26 25 25 26 25 26 26 26 27
11 12 13 14 15 15 15 16 16 17 17 18 18 19 19 20 21 22 23 24 25 25 25 26 26 27 27 28 28 28 29 29 29 30 30 29 28 28 28 29 29 28 28
12 13 14 15 15 16 17 18 19 20 20 21 21 22 22 23 24 25 26 26 27 27 28 28 28 29 30 30 30 31 32 32 32 32 33 33 32 31 31 31 32 31 31
14 15 16 16 17 18 19 20 21 22 23 23 24 24 25 26 27 28 29 29 30 30 30 30 31 32 32 33 33 34 35 35 35 35 35 35 35 35 34 34 34 34 34
17 18 19 19 20 21 22 22 23 24 25 25 26 27 28 28 29 30 31 32 32 32 33 33 33 34 35 36 37 37 38 38 38 38 38 38 38 38 38 37 37 36 36
20 21 21 22 23 23 24 25 25 26 26 27 29 30 30 31 32 33 34 34 35 35 35 36 36 36 37 38 39 40 41 41 40 40 40 40 40 41 41 40 40 39 38
24 24 25 25 26 25 26 27 28 29 30 30 31 32 32 33 35 35 36 37 37 38 37 38 38 39 40 40 41 42 43 44 45 44 44 42 43 44 45 44 43 42 41
27 27 28 28 29 30 30 31 32 33 33 33 34 34 34 35 36 36 38 39 40 40 40 41 42 42 43 44 45 45 45 45 46 48 48 46 46 47 48 48 47 46 45
30 32 32 32 33 34 34 35 35 35 36 36 36 37 38 38 39 39 40 41 42 43 44 44 45 46 46 47 48 49 49 49 49 50 50 50 50 50 50 51 50 49 48
34 35 35 36 36 36 36 37 38 38 39 39 40 41 41 42 42 42 42 43 44 45 46 46 48 49 50 51 51 52 52 52 54 54 54 53 53 52 53 53 53 53 52
36 36 37 37 37 37 38 38 38 39 40 41 42 42 43 43 43 44 45 46 47 48 49 50 51 52 53 54 55 56 56 57 57 58 58 58 58 57 56 56 56 56 56
37 37 38 39 39 39 39 39 39 41 41 42 42 43 44 45 46 47 48 49 50 51 53 54 55 57 58 59 60 61 61 62 63 63 63 62 62 62 61 60 59 59 58
37 38 38 39 40 39 39 39 40 40 41 43 44 45 46 47 48 49 51 52 54 56 57 59 60 62 63 64 65 66 67 67 67 67 67 66 66 66 65 65 63 61 60
37 37 36 37 37 37 38 38 40 42 43 45 46 47 48 50 52 54 56 58 59 61 62 64 65 66 68 69 70 70 70 71 71 71 70 69 69 68 68 67 66 64 63
36 36 37 37 38 38 39 40 42 43 44 46 48 50 52 54 56 58 60 62 64 66 67 68 70 71 71 72 72 72 72 71 71 70 69 69 68 67 66 65 64 63 63
37 37 38 39 40 41 42 43 44 46 47 49 51 53 56 58 60 62 64 66 68 70 72 72 73 73 72 71 70 69 68 67 66 66 66 65 64 63 62 61 60 60 60
39 39 40 41 42 43 45 46 48 49 51 53 55 57 59 61 63 65 67 68 69 70 70 69 68 67 65 64 63 61 61 60 60 60 59 58 57 57 56 55 55 56 55
39 41 42 42 44 46 47 49 51 53 55 58 60 62 63 64 64 65 66 66 65 64 63 62 60 58 57 56 55 54 53 52 52 51 51 51 51 50 50 49 50 50 51
42 43 44 45 46 48 50 52 55 57 58 60 61 62 62 63 63 62 61 60 58 57 55 53 52 51 49 48 46 45 44 44 44 44 43 43 43 44 43 43 44 44 44
44 45 46 47 49 50 52 54 55 56 57 58 58 58 58 57 57 56 54 53 51 48 47 46 44 43 41 40 39 38 38 37 37 37 37 36 36 36 35 36 37 38 38
46 47 49 50 51 52 53 54 54 54 54 54 54 53 52 51 50 49 47 46 44 42 41 39 38 37 36 35 35 34 33 32 31 30 29 29 29 30 29 29 30 30 32
47 48 49 50 51 51 51 51 50 50 50 49 48 47 46 45 44 43 42 40 38 37 36 34 33 32 31 30 29 28 26 26 25 24 23 22 22 22 23 23 24 24 26
48 48 49 49 48 48 47 46 46 46 45 43 42 41 40 40 39 38 36 35 34 33 31 29 28 27 26 25 24 22 21 20 19 18 18 17 17 17 18 18 18 19 21
47 47 46 46 45 43 43 42 42 41 39 38 38 37 36 36 35 32 31 30 29 28 25 24 23 23 22 21 20 19 17 16 15 14 14 13 12 13 14 15 16 17 19
45 44 43 42 40 40 39 38 37 36 35 35 34 33 33 31 29 28 27 26 26 24 22 21 21 20 19 18 17 16 15 14 14 13 12 12 12 12 13 13 14 16 17
41 40 40 38 37 36 35 34 33 32 32 31 30 30 28 27 26 24 23 23 22 20 19 18 18 18 17 16 15 14 13 13 14 13 13 13 13 14 14 14 15 15 16

GEFSGL_500_meanwind_084.txt.gz
Wind_Speed
11 13 14 15 15 16 16 16 17 17 18 18 18 18 18 19 19 19 20 20 20 19 19 20 20 20 21 21 21 21 21 21 21 21 21 22 22 22 23 23 24 24 24
10 12 13 14 15 16 17 18 18 19 20 20 20 20 21 21 22 22 22 22 22 22 23 23 23 23 24 24 24 24 24 24 24 24 24 24 25 25 25 26 26 27 27
9 11 13 14 15 17 18 19 20 20 21 22 22 23 23 24 24 25 25 25 25 25 25 26 26 26 26 27 27 27 28 28 28 28 28 28 28 29 29 29 30 30 30
11 12 14 15 16 17 19 19 21 22 23 23 24 25 26 26 27 27 27 27 28 28 28 29 29 29 30 30 30 31 31 31 31 31 31 32 32 33 33 33 33 33 33
12 14 16 17 18 19 20 21 22 23 24 25 26 27 28 28 29 29 29 30 31 31 31 32 32 33 33 34 34 34 34 34 34 34 34 35 35 36 37 37 36 36 35
14 15 16 17 17 18 20 22 23 24 25 26 27 29 29 30 32 32 32 33 34 34 34 35 35 36 36 37 37 37 37 37 38 38 39 38 38 39 40 40 40 39 38
17 17 17 18 19 20 22 22 23 24 25 27 29 30 30 31 32 34 34 33 34 34 36 37 37 38 39 40 40 40 40 41 42 42 43 42 42 43 44 45 45 45 43
18 19 20 21 22 24 24 24 25 26 27 29 30 31 32 33 34 35 36 36 35 37 38 39 41 41 41 42 43 43 43 44 45 46 46 45 46 46 47 48 49 49 47
21 23 23 24 25 25 25 26 28 29 31 32 32 34 35 36 37 37 39 39 40 40 41 43 43 44 44 44 45 45 46 46 47 48 49 49 50 50 51 52 53 53 52
24 25 26 27 27 28 28 29 30 33 34 34 34 37 38 38 39 40 40 40 41 42 42 43 43 44 46 47 47 48 48 49 50 51 52 53 54 55 56 57 57 58 58
26 27 27 29 30 31 32 32 33 34 35 36 37 38 38 39 40 40 40 41 42 42 43 44 45 46 48 49 50 51 52 53 53 54 55 57 58 59 60 62 63 64 64
28 29 30 31 32 33 34 35 35 36 36 37 38 38 39 40 41 41 41 42 43 44 45 46 48 49 51 52 53 55 57 58 59 60 61 62 64 65 66 67 68 69 69
31 31 33 34 34 35 35 35 36 37 38 39 40 41 41 41 42 43 44 46 47 48 49 51 52 54 55 57 58 60 62 63 65 66 68 69 70 71 72 72 72 72 72
32 33 34 35 36 36 36 36 37 37 39 40 41 42 43 44 45 46 48 49 51 52 53 55 57 59 61 62 64 65 66 68 69 70 72 72 73 74 74 74 74 73 73
33 34 34 35 36 37 38 38 39 39 40 41 42 44 45 47 48 50 51 53 55 56 58 60 62 63 64 66 67 68 69 70 71 71 71 71 70 70 69 70 71 71 72
33 34 35 36 37 38 39 39 40 41 42 44 45 46 47 48 50 52 55 57 58 60 61 62 63 64 65 65 66 66 67 67 67 66 65 64 63 62 62 62 63 64 65
34 35 35 36 37 39 40 41 42 44 45 46 47 49 51 52 53 55 56 57 59 60 60 61 61 61 61 61 62 61 61 59 58 58 57 56 56 55 54 54 54 54 55
34 36 37 38 39 41 42 43 44 45 46 48 49 51 52 54 55 56 57 57 57 58 58 58 58 58 58 57 56 55 54 52 51 50 49 48 48 48 48 48 47 47 46
36 38 39 40 41 42 43 45 46 47 48 50 51 52 53 54 55 56 55 55 54 54 54 54 54 53 53 51 50 48 46 45 44 42 42 42 41 41 41 40 39 39 39
39 40 41 42 43 44 45 46 47 49 50 51 52 52 52 52 52 52 52 51 50 49 49 48 48 47 45 43 42 40 39 39 38 37 36 36 35 35 34 33 33 32 32
41 42 43 44 45 46 47 48 49 50 50 51 50 50 49 49 49 47 46 45 45 44 43 42 41 40 38 36 35 34 35 34 33 33 32 32 32 30 29 28 27 27 26
43 44 45 46 46 47 47 47 48 48 47 47 46 46 45 44 43 41 40 40 39 39 38 37 36 34 32 31 31 30 30 29 29 28 28 27 26 25 24 22 21 21 21
43 44 45 45 46 46 46 45 45 44 43 42 41 41 39 38 37 36 36 35 34 34 33 31 30 29 29 28 27 27 26 25 24 23 22 21 20 20 19 19 18 18 18
42 42 42 43 43 43 42 41 39 38 37 37 36 35 33 33 32 31 30 29 29 28 27 27 26 26 25 24 24 23 23 21 20 19 18 18 18 17 17 16 16 16 16
40 40 40 40 39 38 36 35 34 33 33 32 31 30 29 28 27 27 26 25 25 25 25 24 23 23 22 22 21 21 21 20 18 17 17 16 16 16 15 15 15 15 15
38 37 37 36 34 33 32 31 30 30 29 28 26 25 25 25 25 24 23 23 23 23 23 22 21 21 20 20 19 19 18 18 17 16 15 15 15 15 15 15 15 16 15

GEFSGL_500_meanwind_090.txt.gz
Wind_Speed
12 13 14 14 15 15 15 15 16 16 16 16 17 18 18 19 20 20 20 21 21 22 22 22 22 22 23 23 23 23 23 23 24 24 25 25 25 25 26 26 27 27 27
10 10 12 13 14 15 15 16 17 17 17 18 19 20 21 21 22 23 23 24 24 25 25 26 26 26 27 27 27 27 27 27 28 28 28 29 29 30 30 30 31 31 31
9 10 11 12 13 15 16 17 17 18 19 20 21 22 23 24 25 25 26 27 27 28 29 29 30 30 31 31 31 31 31 32 32 32 32 33 33 34 34 35 35 35 35
9 10 11 12 13 15 16 17 18 19 20 22 23 24 25 25 27 28 29 30 31 31 32 33 33 34 34 35 35 35 36 36 36 36 36 37 37 38 38 39 39 39 39
9 10 11 12 13 15 17 18 19 20 22 24 25 26 27 27 29 31 32 33 34 35 35 36 37 37 38 39 39 40 40 40 40 41 40 40 41 42 43 43 42 42 42
12 12 13 14 15 15 17 18 20 22 23 25 26 27 28 29 30 32 34 35 35 36 37 38 39 40 41 42 43 43 44 44 44 45 45 45 45 45 46 47 47 47 46
14 15 16 15 16 17 18 19 22 23 25 26 27 28 29 30 32 33 35 36 37 38 40 41 42 44 44 45 46 46 47 47 48 48 49 49 49 49 50 50 51 51 50
17 18 18 18 19 19 20 21 23 25 26 27 29 30 31 33 34 36 37 38 39 40 41 43 44 45 46 46 47 49 50 50 51 52 52 52 53 53 53 54 54 54 53
17 18 19 20 21 21 22 23 24 25 27 29 30 32 33 35 36 37 39 40 42 43 44 45 46 47 47 48 50 51 51 52 53 54 55 55 56 56 56 56 56 56 55
19 20 20 20 21 22 24 26 27 28 30 31 32 34 36 37 38 39 41 43 44 45 46 47 48 48 49 50 51 52 53 54 55 56 56 56 57 57 58 59 59 59 59
22 22 22 23 24 26 27 29 30 31 32 33 34 35 37 39 40 42 43 44 46 47 47 48 49 50 52 52 53 53 54 55 55 56 57 58 60 60 61 63 64 65 65
24 24 25 26 28 29 29 31 32 33 34 35 36 37 38 39 41 43 44 45 46 47 49 49 50 51 52 53 54 55 57 58 58 59 60 61 63 64 65 66 68 69 70
25 26 27 28 30 31 32 33 34 35 36 37 38 39 40 41 43 44 46 47 48 49 51 52 52 53 55 56 57 59 60 61 62 63 64 65 66 67 68 69 70 71 72
27 29 30 31 32 33 35 35 37 38 38 39 40 41 42 43 45 46 48 49 51 52 54 55 56 56 58 59 61 62 63 64 65 65 66 67 68 68 69 70 71 71 71
29 30 31 32 33 34 36 36 37 38 39 40 42 43 45 46 48 50 51 52 53 55 56 57 58 59 60 62 63 64 64 65 65 66 67 67 67 68 68 69 69 69 69
29 31 32 34 35 36 37 38 39 41 42 44 45 47 48 50 51 53 54 55 56 57 58 58 59 60 61 61 62 62 63 64 64 65 65 65 65 65 65 64 64 63 63
31 33 34 36 37 38 39 41 42 44 46 47 49 50 52 53 54 55 56 57 58 59 59 60 60 61 61 61 60 60 60 60 60 60 60 60 60 59 58 57 57 56 55
33 34 36 38 39 41 42 44 45 47 49 50 52 53 54 55 56 57 58 58 58 59 59 58 58 58 58 57 56 56 55 55 55 54 54 53 52 51 50 49 48 47 47
35 36 38 40 42 44 46 47 49 50 51 53 54 55 55 56 57 57 57 56 56 55 55 55 54 54 53 52 51 50 50 49 48 47 46 45 44 43 42 41 40 40 40
37 39 41 43 45 47 48 49 50 51 52 53 54 54 55 54 54 54 52 52 51 50 50 49 48 47 45 44 44 43 43 42 41 40 40 39 38 37 36 35 34 34 34
41 43 45 46 47 48 49 50 50 51 52 52 52 51 51 50 49 48 47 46 45 44 43 42 41 40 39 38 37 37 36 36 36 35 35 34 33 32 31 30 30 30 30
44 45 46 46 47 48 49 49 49 50 49 49 48 48 46 45 44 43 42 41 40 39 38 37 36 34 34 34 33 33 33 33 32 31 31 30 30 29 28 28 27 27 27
43 45 46 46 47 47 47 46 46 45 45 44 43 41 41 40 39 38 37 36 35 34 33 32 31 31 31 31 30 30 30 28 28 27 27 27 27 26 25 25 24 24 23
43 44 44 44 44 43 42 42 42 41 40 40 39 38 36 36 35 33 32 32 31 30 30 30 30 29 29 29 29 29 28 26 25 24 24 24 23 23 22 22 22 21 21
42 42 41 40 40 39 39 39 39 38 37 37 36 35 33 33 32 31 30 29 29 29 29 29 28 28 28 27 27 26 26 24 23 22 21 21 21 20 20 20 19 20 20
40 39 38 38 37 37 37 37 36 36 35 34 33 32 31 31 30 29 29 28 28 28 28 28 28 27 27 26 25 24 24 23 22 22 21 20 20 20 19 19 19 19 19

GEFSGL_500_meanwind_096.txt.gz
Wind_Speed
13 15 16 17 18 19 19 19 19 19 18 18 18 19 19 19 19 19 20 20 21 21 21 22 22 23 23 23 24 25 26 26 27 28 28 29 29 29 29 30 30 30 30
10 12 13 14 16 16 17 18 19 19 19 19 19 19 19 19 20 21 21 22 23 24 24 25 26 26 26 27 28 29 30 30 31 32 33 33 34 34 34 34 35 34 35
8 11 12 12 13 14 16 17 18 18 19 19 20 20 21 21 22 22 23 24 26 26 27 28 29 29 30 31 31 32 33 34 34 36 37 37 38 38 38 39 39 39 39
9 10 11 12 13 14 15 17 17 18 19 20 20 21 22 23 23 24 25 25 27 28 29 30 31 31 33 34 34 35 36 37 38 39 40 41 42 42 43 43 43 43 43
10 10 11 12 13 13 14 16 17 17 18 20 21 22 23 24 25 26 27 27 28 30 31 32 33 34 35 36 37 38 39 40 41 41 42 43 44 45 45 46 46 46 46
11 11 12 13 14 14 14 15 17 18 20 21 21 22 23 24 25 27 28 29 31 32 33 34 35 36 37 38 39 40 41 43 44 45 45 45 46 47 49 49 50 50 50
12 13 14 14 15 15 16 17 18 20 21 22 24 24 26 27 27 28 30 32 33 34 36 37 38 39 40 40 41 43 45 45 46 48 49 50 51 52 52 53 54 54 53
15 16 16 16 17 18 18 19 20 21 23 24 25 26 27 28 29 31 32 34 35 37 39 40 41 42 44 45 46 47 48 49 50 51 52 52 54 55 55 55 56 56 55
18 19 19 19 20 21 21 21 22 23 23 25 26 27 28 30 31 32 34 35 37 39 41 43 44 45 46 48 49 50 51 52 52 52 53 54 55 56 56 57 57 57 57
21 22 22 23 23 23 23 23 23 25 26 27 29 30 31 33 34 36 37 38 39 41 43 45 46 47 48 49 50 51 52 53 54 55 56 57 57 58 58 59 59 60 60
24 25 25 25 25 24 25 26 27 28 29 30 31 32 34 36 37 38 39 41 42 43 45 46 47 48 49 51 52 53 54 55 56 57 58 59 60 60 61 62 62 63 63
28 27 27 27 27 27 28 28 29 30 31 33 34 35 37 38 39 40 42 43 44 45 47 48 50 51 53 54 55 56 57 58 59 60 61 61 62 63 64 65 65 65 65
29 29 29 28 28 29 30 31 32 32 33 35 36 38 39 40 42 43 43 45 46 47 49 51 53 55 56 57 58 60 61 62 62 63 63 64 65 65 66 66 66 67 67
29 29 29 30 30 31 31 32 32 33 35 36 37 39 40 42 43 44 46 48 49 51 53 55 57 58 59 61 62 63 63 63 64 64 65 65 65 66 66 66 67 68 67
30 29 29 29 30 31 32 33 34 35 37 38 40 41 42 44 46 48 49 51 53 55 56 58 59 60 61 62 62 63 63 63 63 63 63 63 63 63 63 63 63 63 62
28 27 28 29 30 31 33 34 35 37 39 41 42 44 45 47 49 51 53 54 56 57 58 59 59 60 60 60 60 60 60 59 59 59 59 59 58 58 57 57 57 56 55
27 28 29 30 31 33 34 36 37 39 41 43 45 47 49 50 52 54 55 56 56 57 57 58 58 58 57 56 56 55 55 55 54 53 53 52 52 51 51 50 50 49 49
27 28 30 31 33 35 37 39 41 43 45 47 49 50 52 53 54 54 55 55 55 55 55 55 54 53 51 51 50 49 48 47 46 46 46 45 45 45 44 44 43 43 43
28 30 32 34 35 37 39 42 44 46 48 50 51 52 52 53 53 53 53 52 52 52 51 49 48 47 46 45 43 42 41 41 41 40 40 40 40 39 39 38 38 38 37
30 32 34 36 38 40 42 45 47 48 49 50 51 51 52 51 51 50 49 49 48 47 46 45 44 43 42 40 39 38 38 38 37 37 37 37 36 35 35 35 34 33 33
32 34 36 39 41 43 45 47 48 48 49 50 50 50 49 48 47 47 46 45 44 43 42 41 40 39 38 37 36 36 35 35 35 34 34 34 33 33 32 31 29 29 28
36 38 40 42 44 45 46 47 48 48 48 48 48 47 46 45 44 44 43 42 41 40 39 38 37 36 35 34 34 33 33 33 33 33 32 32 31 30 29 28 27 26 25
39 41 43 44 44 45 46 47 47 47 46 45 45 44 42 42 41 41 40 39 38 37 36 35 34 33 32 32 31 31 31 31 31 31 30 29 29 28 27 26 25 25 24
41 42 43 44 44 45 45 44 44 44 43 42 41 40 39 39 38 38 37 36 35 35 34 33 33 32 31 31 30 30 30 29 29 29 28 27 26 25 25 24 24 23 22
40 41 42 42 43 43 42 42 41 41 40 39 38 38 37 37 36 36 35 35 34 33 33 32 31 31 30 30 30 30 29 28 27 27 26 25 24 24 23 23 22 22 21
39 40 40 40 40 40 39 39 38 37 37 36 36 35 35 35 35 34 34 33 33 32 32 31 31 31 30 30 29 29 28 27 27 26 25 24 23 23 22 22 22 22 21

GEFSGL_500_meanwind_102.txt.gz
Wind_Speed
9 10 11 12 14 17 17 17 18 18 19 20 21 21 21 21 20 20 20 20 20 21 21 22 23 24 24 24 24 25 25 26 27 28 28 28 28 29 29 30 30 30 30
6 7 8 11 13 14 16 16 17 18 19 20 21 21 22 22 22 22 22 22 22 22 23 24 25 26 26 27 27 27 28 28 29 30 31 32 32 33 33 34 34 34 34
4 6 7 9 12 13 13 14 15 17 18 19 20 21 21 22 22 22 22 22 23 24 25 25 26 27 28 28 29 29 30 31 32 32 34 35 35 36 36 37 37 37 37
5 6 7 9 10 10 11 12 14 16 17 19 20 20 21 21 22 23 23 24 24 25 26 27 27 28 29 30 30 32 33 34 35 35 36 37 39 39 39 39 40 41 41
5 5 6 8 9 10 11 12 13 15 16 18 19 19 20 21 22 23 24 25 26 26 27 27 28 29 30 31 32 33 35 36 37 38 39 39 40 41 42 43 43 44 45
8 8 9 10 11 12 13 14 14 15 16 18 19 20 20 20 22 24 25 26 27 27 28 28 29 30 32 33 34 36 37 38 40 41 42 43 44 45 46 47 48 48 48
11 12 12 12 13 14 15 16 16 17 18 18 19 19 21 22 23 25 26 27 28 30 30 31 32 33 34 36 38 38 40 42 43 44 45 46 47 48 49 50 51 51 51
13 13 14 15 16 17 17 18 19 19 20 21 21 23 23 24 25 26 27 28 30 31 32 34 35 36 38 38 40 41 42 43 44 46 47 48 50 51 52 53 53 54 54
16 16 17 18 18 18 19 20 21 21 22 23 24 26 26 27 27 28 29 30 32 33 34 36 37 38 39 40 41 43 44 45 47 48 49 51 52 53 54 56 56 57 58
19 19 20 20 20 21 22 23 24 25 26 27 27 28 29 29 30 31 32 33 34 36 37 38 40 41 42 43 45 46 47 49 50 51 53 54 55 57 58 60 61 62 62
23 23 24 24 24 25 25 26 27 28 29 29 29 30 31 31 32 33 35 36 37 38 39 40 41 42 44 45 47 48 50 52 53 54 56 57 59 61 62 63 64 65 66
27 27 28 28 28 29 29 29 30 32 32 33 33 33 34 34 35 36 37 38 39 40 41 42 44 45 46 48 50 52 53 55 57 59 60 62 63 64 65 66 66 66 66
30 30 30 31 31 32 32 33 34 35 35 35 35 35 35 36 37 38 39 40 41 42 43 45 47 48 50 51 53 55 57 58 60 61 62 63 64 65 65 64 64 63 63
32 32 33 33 33 33 34 35 36 36 35 35 35 34 36 37 39 39 40 41 42 44 46 48 49 51 53 55 56 57 58 59 60 60 61 61 61 61 60 60 59 59 59
32 33 33 33 33 34 34 34 33 33 33 33 34 35 36 37 39 40 42 44 45 47 49 50 52 54 55 56 57 58 59 59 60 59 59 59 58 58 57 56 55 54 53
32 32 32 33 32 32 32 31 31 32 33 33 34 36 38 40 41 43 45 46 48 50 51 52 54 55 56 57 57 57 58 57 57 56 56 55 54 53 52 51 50 49 49
31 31 30 30 29 28 28 29 31 33 34 35 36 38 41 42 44 45 47 49 50 51 53 54 55 55 55 55 55 54 54 53 53 52 51 50 49 48 47 46 45 45 45
28 28 28 28 29 29 30 31 32 33 35 37 39 41 42 44 46 48 49 50 51 52 53 53 53 53 52 51 51 50 50 49 48 47 46 46 45 44 43 42 41 41 40
26 26 27 28 29 30 31 33 34 36 37 39 41 43 44 46 47 48 49 50 51 51 51 51 51 50 49 48 47 47 46 45 44 43 42 42 41 40 40 39 38 38 37
24 26 27 28 30 32 34 35 37 39 40 41 42 44 46 47 48 48 48 48 48 48 48 47 46 46 45 44 44 44 43 42 41 40 39 38 38 37 37 36 35 35 35
24 26 28 30 32 34 36 37 39 41 43 44 45 46 47 48 48 47 46 46 46 45 44 44 43 43 42 42 41 40 39 38 38 37 37 37 36 35 34 34 33 33 33
26 28 29 32 33 35 37 39 41 43 44 45 46 45 46 46 46 45 45 44 43 42 42 41 41 40 40 39 39 38 37 36 36 36 35 35 35 35 33 32 32 31 30
27 29 31 33 35 37 39 41 42 43 44 44 45 44 43 43 43 42 42 41 40 40 40 40 39 39 38 38 37 37 36 36 35 35 34 34 34 33 32 31 30 30 29
30 32 33 35 37 38 39 40 41 42 42 42 41 41 40 40 40 40 39 39 39 38 38 38 38 37 37 36 36 35 34 34 34 34 33 33 32 31 30 29 29 29 28
32 33 34 36 37 38 38 38 38 38 38 38 38 38 38 38 38 37 37 37 36 36 35 35 35 35 34 34 34 34 34 33 33 32 32 31 30 30 29 28 28 27 27
32 33 34 35 35 35 34 34 34 34 34 34 35 35 35 35 35 34 34 33 33 33 33 33 33 33 33 33 32 32 32 32 32 31 30 30 29 29 29 28 27 27 26

GEFSGL_500_meanwind_108.txt.gz
Wind_Speed
6 8 9 11 12 15 17 18 18 19 20 20 20 20 21 22 22 21 21 21 21 21 21 21 21 22 22 22 22 22 22 22 23 23 23 23 24 24 25 25 26 26 27
6 7 9 11 12 13 15 17 17 17 18 19 20 20 20 21 22 23 23 23 23 23 23 23 23 24 24 24 24 24 24 25 25 26 26 26 26 27 27 28 29 29 30
5 5 8 9 11 11 13 15 16 16 17 19 20 20 20 21 22 23 24 24 24 24 24 24 24 24 24 24 25 26 26 27 27 28 29 29 30 30 30 31 32 33 34
4 5 6 8 9 11 11 13 15 16 17 17 19 19 19 19 21 22 23 24 25 25 24 24 25 25 26 26 26 27 27 28 29 30 31 32 33 34 34 35 36 36 38
5 6 7 8 9 11 11 12 13 14 15 16 17 18 18 19 21 21 22 23 24 25 25 26 26 27 27 28 28 29 30 30 31 32 33 35 36 38 38 39 40 40 41
7 7 8 8 9 10 12 13 14 14 15 16 16 17 18 19 20 21 22 23 24 25 26 27 27 28 29 30 31 32 33 34 35 36 37 38 39 41 42 43 44 45 45
9 9 8 8 9 10 11 12 14 15 14 15 16 17 18 19 20 20 21 23 24 25 27 28 30 31 31 32 33 34 35 36 38 39 40 42 43 44 45 46 47 48 49
11 11 11 11 11 12 12 13 13 14 16 17 18 19 19 20 21 23 25 26 28 29 30 31 32 33 34 35 36 37 38 39 40 41 43 44 45 45 47 48 49 51 52
14 14 13 13 14 14 15 15 15 16 17 18 19 20 21 22 23 25 27 28 30 31 32 33 34 35 36 37 38 39 40 42 43 44 45 46 47 48 50 51 52 54 55
17 17 17 17 17 16 17 18 18 18 20 21 22 23 24 25 26 28 29 31 32 33 34 34 36 37 38 39 41 42 43 45 46 48 49 50 51 52 53 55 56 58 59
20 20 20 20 19 18 19 19 21 21 22 23 24 25 27 29 29 30 32 34 35 35 36 37 38 39 41 42 43 44 46 47 49 50 51 52 54 55 57 59 60 62 63
22 22 23 23 22 22 22 23 24 25 25 26 27 28 29 31 32 33 34 35 36 37 38 39 40 41 42 44 46 47 49 50 51 52 54 55 57 59 60 62 63 64 65
24 24 25 24 24 24 25 25 25 26 27 29 30 30 32 32 33 35 35 36 37 38 39 40 42 43 44 46 47 49 50 51 53 55 56 58 59 60 62 62 63 64 64
25 25 25 25 25 26 26 25 26 27 29 30 30 32 33 34 34 36 36 37 39 40 41 42 43 45 46 48 49 51 52 54 55 56 58 59 60 61 61 62 62 61 61
26 27 26 26 27 27 27 28 29 29 29 30 31 32 32 33 35 37 38 39 41 41 42 43 45 47 48 50 52 53 54 56 57 57 58 58 59 59 59 59 58 58 56
26 26 26 27 27 27 28 29 29 29 29 29 29 30 31 33 36 37 39 41 42 43 44 46 47 49 51 52 53 54 55 56 56 57 57 57 57 56 56 56 55 53 53
24 25 26 26 26 26 26 25 25 26 27 28 30 31 34 36 38 39 41 42 43 45 46 48 49 51 52 53 54 54 55 55 55 55 55 54 54 54 53 52 51 50 49
22 22 22 22 22 23 23 24 26 27 29 31 32 34 36 38 39 41 43 44 45 46 48 50 51 51 52 53 53 53 54 53 53 52 52 51 51 50 49 48 47 46 45
19 20 20 21 22 22 23 25 28 29 31 32 34 36 38 39 41 42 44 45 46 48 49 49 50 50 51 51 51 51 51 50 50 49 49 48 47 46 45 44 43 41 40
16 17 18 20 22 24 25 27 28 30 32 33 35 37 38 40 41 43 44 45 46 47 47 47 48 48 48 48 48 47 47 46 46 45 45 44 43 42 41 39 38 37 36
16 17 19 21 22 24 26 27 29 31 33 34 36 37 39 40 41 42 43 44 44 44 45 45 45 45 45 44 43 43 43 42 42 42 41 40 39 38 37 36 35 34 33
17 19 20 22 24 25 27 28 30 32 34 35 37 37 38 39 39 40 41 41 41 41 41 41 41 41 40 40 40 40 40 40 39 39 38 37 36 35 34 33 33 32 32
18 20 21 23 25 27 28 30 31 33 34 35 35 36 36 37 37 37 37 38 38 38 38 38 38 37 37 37 37 37 37 37 36 35 34 33 33 32 32 31 31 30 30
19 20 22 24 26 27 29 30 31 31 32 32 33 33 34 34 34 34 34 34 34 34 34 34 34 34 34 35 35 34 34 34 33 32 31 31 30 30 30 30 29 29 28
21 22 24 25 26 27 28 28 29 29 29 30 30 31 31 31 31 31 31 31 31 31 31 31 31 31 31 31 32 31 31 31 30 29 29 28 28 28 27 27 27 27 27
23 24 25 25 26 26 26 27 27 27 27 27 28 27 27 28 28 28 28 29 30 30 30 30 29 29 29 30 29 29 29 28 28 27 26 26 25 25 25 25 25 25 25

GEFSGL_500_meanwind_114.txt.gz
Wind_Speed
7 8 10 11 13 13 15 17 18 19 20 20 20 20 20 20 21 21 22 22 23 23 23 23 23 23 24 24 25 25 25 25 26 26 26 27 27 27 27 28 28 28 29
7 7 8 9 12 13 14 15 15 16 18 19 20 20 20 19 20 21 22 23 23 24 25 25 25 25 26 26 26 27 28 28 29 29 29 29 30 30 30 30 31 32 33
7 8 8 9 10 12 13 14 14 14 17 18 19 20 19 19 20 21 22 23 24 24 25 26 26 26 27 27 28 28 29 29 30 30 30 31 31 32 33 34 34 35 36
8 8 10 11 11 12 12 13 14 15 16 18 19 19 19 19 21 22 23 23 24 24 24 25 26 27 27 28 29 30 30 31 31 32 32 33 33 34 35 36 37 38 39
8 9 9 11 11 11 12 12 14 15 16 16 17 18 19 20 21 22 23 23 23 24 25 25 26 27 29 29 30 31 32 33 34 34 35 36 36 37 37 39 40 41 42
9 9 10 11 11 11 11 12 13 14 15 16 17 18 19 20 21 22 23 24 24 25 26 27 28 29 30 31 32 33 33 35 36 37 38 39 40 40 41 42 43 44 45
11 11 11 11 12 12 12 13 14 15 16 17 18 18 19 20 20 21 22 23 24 25 27 28 30 31 31 32 33 35 36 38 38 39 40 41 43 44 45 46 46 48 49
15 14 14 14 14 14 15 15 15 15 15 17 17 18 20 21 21 21 22 24 25 27 28 29 30 32 33 34 35 37 38 39 40 42 43 44 46 47 48 49 50 52 53
17 16 16 16 16 16 16 16 16 17 18 18 18 18 19 20 20 22 24 26 27 28 30 31 32 34 35 37 39 40 41 42 44 45 47 48 50 50 52 53 54 55 56
20 19 19 19 18 18 18 18 18 19 20 20 19 20 21 22 23 24 26 27 29 30 32 33 35 37 39 41 42 43 44 46 46 48 50 51 52 53 54 55 56 57 59
22 22 21 21 20 20 20 21 21 21 22 21 22 22 23 24 25 27 28 30 31 32 34 35 37 38 40 42 43 45 47 48 49 51 52 53 55 56 57 59 60 61 62
24 23 22 22 22 22 22 23 23 24 24 24 24 24 26 27 28 29 31 32 34 35 36 38 39 41 42 44 45 47 49 50 51 53 55 56 58 60 61 63 64 65 66
24 25 25 25 24 24 24 24 24 24 25 25 26 26 27 28 30 31 32 34 35 36 38 40 41 43 45 47 49 50 51 52 54 55 57 59 60 62 63 65 65 66 67
26 25 26 26 25 25 25 25 25 25 26 27 28 29 29 30 32 34 34 35 37 38 40 41 43 46 47 49 50 51 52 54 56 57 59 60 61 63 64 64 65 66 66
27 26 26 25 24 25 25 25 26 27 27 28 29 30 31 32 33 34 36 38 39 40 42 43 45 47 48 50 51 52 54 55 57 58 59 61 62 63 64 64 65 64 64
23 24 24 25 24 24 24 25 27 28 28 29 29 30 31 32 34 35 36 36 38 40 42 45 46 47 49 50 51 53 55 56 57 58 59 60 61 61 61 62 62 61 60
22 23 23 23 24 24 24 25 26 27 28 28 30 31 32 33 34 34 35 38 40 42 43 45 46 47 48 50 51 53 54 55 56 56 57 57 57 57 57 57 56 55 55
21 21 22 22 22 23 24 24 25 26 26 27 28 30 31 32 34 35 37 39 40 41 42 43 45 46 47 48 50 51 52 52 52 52 52 52 52 52 52 51 51 50 50
18 18 19 21 22 22 23 23 23 24 25 27 29 30 31 33 34 35 36 38 39 40 41 42 43 44 46 46 47 48 48 48 48 49 49 48 48 47 47 46 45 44 44
17 18 20 20 21 22 22 23 23 25 27 28 30 31 32 34 34 34 35 36 37 38 39 41 42 43 43 44 44 44 44 45 45 45 45 44 43 42 41 40 40 39 39
16 17 18 19 20 21 22 23 24 26 27 28 30 31 32 33 33 34 35 36 36 37 38 39 40 40 40 41 41 41 41 41 41 40 40 39 39 38 37 37 36 35 35
16 16 18 19 20 21 22 23 24 26 27 28 29 30 31 31 32 33 33 34 35 35 36 36 36 37 38 38 38 37 37 37 37 37 36 36 35 35 34 33 33 32 31
15 16 17 18 20 21 22 23 25 26 27 28 28 29 29 30 30 31 32 32 32 32 33 33 34 34 34 34 34 34 34 33 33 33 33 33 32 32 32 31 31 30 29
16 17 18 19 20 22 23 25 26 26 27 27 28 28 29 29 29 29 29 29 30 30 31 31 31 31 32 32 32 32 32 32 32 32 31 31 31 32 31 30 29 28 28
16 18 19 21 22 23 24 25 25 26 26 26 27 27 27 28 28 28 28 28 28 28 28 28 29 29 30 31 31 31 31 31 31 31 31 31 31 31 30 29 28 27 27
19 21 22 23 24 24 24 25 25 25 25 25 25 25 26 26 26 26 25 26 26 26 27 27 27 28 29 29 30 30 31 31 31 30 30 30 30 30 29 29 28 27 26

GEFSGL_500_meanwind_120.txt.gz
Wind_Speed
8 9 9 10 11 13 14 14 15 16 18 20 20 21 21 21 22 21 21 21 21 22 23 23 23 23 24 24 25 26 27 27 27 28 29 29 29 30 30 31 31 32 32
9 9 10 10 11 12 13 14 15 15 16 18 19 20 20 21 21 22 22 21 21 22 23 23 24 25 26 26 27 27 28 29 29 29 30 31 31 32 32 33 34 34 35
10 10 11 12 12 13 14 15 16 16 16 17 18 19 20 20 22 23 23 23 23 23 23 24 25 26 27 28 29 29 28 29 30 31 32 33 33 34 35 36 36 37 37
11 12 12 12 12 12 13 14 15 15 16 17 18 19 19 19 20 22 23 23 23 24 25 26 27 28 29 29 29 30 30 30 31 32 33 34 36 37 38 38 39 40 40
11 11 12 12 13 14 14 15 15 15 16 17 18 18 19 19 19 21 22 23 24 25 26 27 28 29 29 30 31 31 31 32 32 34 35 36 37 38 39 41 41 42 43
13 12 12 12 13 14 15 15 16 16 16 16 18 18 19 20 21 22 22 23 24 25 26 28 29 29 30 32 32 33 33 33 34 36 37 38 38 39 41 43 44 45 46
15 14 14 14 14 15 15 16 16 16 17 17 18 19 20 20 21 22 23 24 25 25 26 27 28 29 29 32 33 33 34 35 36 37 38 39 41 42 44 45 46 48 49
17 17 17 17 16 16 17 17 17 17 17 17 18 19 20 21 22 23 24 25 25 27 27 28 28 29 30 31 33 34 35 36 37 39 41 43 44 45 46 47 48 50 51
19 18 18 18 19 18 19 19 19 19 19 19 20 21 22 23 24 25 25 26 27 27 28 28 29 30 31 33 34 34 35 36 38 40 42 44 46 47 48 50 51 53 54
22 21 20 21 21 21 21 21 21 22 22 22 23 24 25 25 26 25 26 27 28 28 29 29 30 31 32 34 35 36 37 39 41 43 45 47 48 50 51 52 53 55 56
23 23 22 22 23 23 22 23 23 23 23 24 25 26 26 26 26 26 27 28 29 31 31 32 33 34 35 36 38 39 40 42 44 46 47 49 50 52 53 54 56 57 58
25 24 24 24 24 24 24 24 24 25 25 26 26 27 27 27 26 26 27 28 30 32 33 34 36 37 38 40 41 42 43 45 47 48 50 51 52 54 55 56 57 59 60
26 26 26 27 26 26 27 27 27 27 27 27 27 27 28 27 28 29 30 31 32 34 35 37 38 39 41 43 43 44 45 47 48 49 51 52 53 55 57 58 59 60 61
27 27 27 27 27 27 27 27 28 27 27 27 27 28 28 28 29 30 32 33 34 35 36 37 39 40 41 43 44 45 46 47 48 49 51 53 54 55 56 57 58 59 59
27 27 27 27 27 27 27 26 26 27 27 27 27 27 28 28 29 30 31 32 34 36 37 38 39 40 41 42 43 44 45 46 47 49 50 51 52 53 54 56 56 57 57
25 25 25 25 25 26 26 25 25 25 26 26 26 28 28 28 29 31 32 33 34 35 35 36 37 38 39 40 41 42 43 44 45 46 47 48 50 51 51 52 52 51 51
23 24 24 23 23 24 24 24 25 25 25 25 25 27 27 26 28 29 31 31 32 33 33 34 35 36 37 39 39 40 41 42 43 43 44 45 46 47 47 47 47 47 46
22 22 22 21 21 21 22 23 23 24 24 23 23 25 26 27 28 29 29 30 30 31 32 33 35 35 36 37 37 38 39 40 41 42 42 43 43 43 43 43 43 43 42
21 20 20 20 19 20 21 21 22 21 22 22 23 25 26 26 27 28 28 29 29 30 31 32 33 33 34 35 36 36 37 38 39 39 40 40 40 40 39 40 40 40 39
18 18 18 18 19 19 18 19 20 20 21 22 23 24 25 25 26 27 27 28 29 29 30 31 31 32 33 33 34 34 35 35 36 37 37 37 37 37 37 37 37 36 36
17 17 17 17 17 18 18 18 20 21 22 22 23 24 24 25 25 26 27 27 28 29 29 30 30 30 30 31 31 32 32 33 34 34 35 35 35 35 35 34 34 33 33
15 16 16 15 16 17 17 18 19 20 21 22 22 24 25 25 26 26 27 27 27 28 28 28 28 28 28 29 29 30 31 31 32 33 33 33 33 32 32 32 32 31 31
14 15 15 15 16 16 17 18 19 20 21 22 23 24 25 25 25 25 26 26 26 26 26 26 26 27 27 28 28 29 29 30 30 31 31 31 31 31 31 31 31 30 30
13 13 14 14 15 16 17 18 20 21 22 23 24 24 24 24 24 24 24 25 25 25 25 25 25 25 26 26 26 27 27 28 29 29 29 30 30 30 30 30 30 30 29
13 14 15 16 17 18 19 19 20 22 22 23 23 23 23 23 23 23 23 24 24 24 24 24 24 24 24 24 25 25 26 27 27 28 28 28 29 29 29 29 29 29 29
15 16 17 17 18 19 20 21 22 23 23 23 23 23 23 23 23 23 22 22 22 22 22 23 23 23 23 23 23 24 25 26 26 27 27 28 28 28 29 29 29 29 29

GEFSGL_500_meanwind_126.txt.gz
Wind_Speed
10 10 10 11 11 11 12 13 13 14 14 16 17 18 19 19 20 20 20 20 20 20 21 20 21 21 22 23 23 24 24 25 25 26 27 27 27 28 29 29 29 30 31
10 10 11 11 12 12 13 13 14 14 15 16 17 18 18 19 19 20 21 22 22 21 21 22 22 22 23 24 25 26 27 27 27 27 28 29 29 30 31 32 32 33 34
11 11 12 11 12 13 13 14 15 15 15 16 17 17 18 19 19 20 21 21 22 22 22 23 23 24 24 25 26 27 28 29 29 29 29 30 31 32 33 34 34 35 35
12 12 12 13 13 13 14 14 15 15 15 16 17 18 19 19 19 19 20 20 20 22 23 24 25 25 26 26 27 27 28 29 30 31 31 32 32 34 35 36 36 36 37
14 13 14 14 14 14 14 14 15 16 16 16 16 16 17 17 18 19 19 19 21 22 23 24 26 27 28 28 29 29 29 31 31 33 34 34 35 36 36 37 37 37 39
16 16 15 15 14 14 14 15 16 17 17 18 18 18 18 18 19 20 21 22 22 23 24 25 26 28 28 29 30 30 31 32 33 34 35 36 37 37 38 38 39 40 41
18 17 16 16 16 15 16 16 16 18 18 18 18 18 18 19 20 20 21 23 24 24 25 27 28 28 29 29 30 30 31 32 33 34 36 36 37 38 39 40 41 43 44
19 19 18 17 17 17 18 18 18 19 18 18 18 18 18 19 20 21 22 23 25 26 27 28 29 29 30 31 32 32 32 32 33 35 36 37 38 39 40 42 44 45 47
21 20 19 19 19 19 20 19 19 19 19 19 20 20 21 21 22 23 24 25 26 26 27 28 29 29 30 30 31 31 32 33 35 36 38 39 40 41 42 44 45 46 47
22 22 21 22 22 21 21 21 20 20 20 21 21 22 23 24 24 24 25 26 26 27 28 28 30 31 31 31 31 32 33 34 36 37 39 40 41 42 43 45 47 48 49
24 24 24 24 24 23 23 22 22 22 22 22 23 24 24 25 25 26 26 27 28 28 28 28 30 31 32 32 33 33 35 36 37 39 40 41 41 43 44 45 46 48 49
25 24 24 24 24 24 25 24 24 24 24 24 24 24 24 25 25 25 26 26 27 28 29 30 30 31 32 33 35 36 38 38 39 40 41 43 43 44 45 46 47 48 49
26 25 25 25 25 25 25 25 25 25 25 26 26 26 26 25 25 26 27 27 28 29 30 31 31 32 33 34 35 36 37 38 39 40 41 42 43 44 45 46 47 48 49
25 25 26 26 26 26 25 25 25 25 26 26 26 27 26 26 26 27 27 28 29 30 30 31 31 32 33 34 34 35 37 38 39 40 40 41 42 43 43 44 45 46 47
26 26 26 26 26 26 25 25 25 25 26 26 25 25 26 25 25 26 26 28 28 29 30 31 31 31 31 32 34 35 36 37 37 38 39 40 40 41 42 43 43 43 44
26 25 25 25 25 25 24 24 24 25 25 24 24 25 24 24 24 26 27 28 28 29 29 29 30 30 31 32 33 34 34 35 35 36 37 38 38 39 39 39 40 41 42
26 25 24 24 24 24 23 24 24 24 24 24 24 24 25 25 25 26 27 27 28 29 29 29 30 30 30 31 32 32 32 33 34 34 35 35 36 36 37 38 39 39 40
24 24 23 23 23 23 23 24 24 24 24 24 23 23 23 23 23 24 25 27 27 28 28 28 28 29 29 30 31 31 32 32 33 33 33 34 35 35 36 36 37 37 37
23 23 22 22 22 22 22 21 21 22 22 22 22 22 23 23 23 24 25 27 27 26 26 26 27 28 28 29 29 30 31 31 31 32 32 32 33 33 34 35 35 35 35
22 22 21 21 21 20 20 20 20 20 21 21 22 23 23 23 24 25 26 26 26 26 26 26 27 27 28 29 29 30 30 30 30 30 31 31 32 32 33 33 33 33 33
19 18 18 18 18 19 19 19 20 20 20 21 22 22 23 23 24 25 24 24 25 26 26 26 27 27 28 28 29 29 29 28 28 29 29 30 30 30 31 31 32 32 32
16 16 17 17 18 19 19 20 20 20 20 21 21 22 22 23 23 24 24 24 25 26 26 26 27 27 28 27 27 27 27 27 27 27 28 28 29 29 29 30 30 31 31
16 17 17 17 17 18 19 20 20 20 20 20 21 22 22 23 23 23 24 25 25 25 26 26 26 26 26 26 26 26 26 26 26 26 27 27 27 28 28 28 29 29 30
15 16 16 16 17 18 18 18 18 19 20 21 22 22 23 23 24 25 25 25 25 25 26 25 25 25 25 25 25 25 25 25 25 26 26 26 26 26 27 27 28 29 29
16 17 17 18 18 18 19 19 20 20 21 22 23 23 24 24 25 25 25 25 25 25 25 24 24 24 24 24 24 24 24 24 24 25 25 25 25 25 26 27 27 28 29
17 18 18 18 19 19 20 21 21 22 22 23 24 24 25 25 25 25 25 26 25 25 24 24 23 23 23 23 23 23 23 23 23 24 24 24 24 25 25 26 27 28 28

GEFSGL_500_meanwind_132.txt.gz
Wind_Speed
7 7 7 8 8 8 8 9 10 11 12 12 14 14 15 16 16 17 17 18 18 19 20 20 20 21 21 21 21 21 21 22 22 23 24 24 25 25 26 27 28 29 29
8 8 9 9 9 9 10 10 10 10 11 12 13 14 14 16 17 18 19 18 19 19 20 21 20 21 21 22 21 21 21 22 23 24 25 26 26 27 28 29 30 31 31
9 9 9 10 10 10 10 10 10 10 11 13 13 13 14 16 17 18 19 19 19 19 19 20 21 22 21 22 21 22 23 24 25 26 27 28 28 29 30 31 32 33 34
11 10 10 11 11 11 11 11 11 11 12 12 13 14 15 17 18 18 18 19 19 19 19 20 22 22 22 22 23 24 25 26 27 28 28 29 30 31 32 33 34 35 36
12 12 12 12 11 11 12 12 12 12 12 13 14 15 16 17 18 18 18 19 19 20 21 21 21 22 22 23 24 25 27 28 28 29 30 30 32 33 33 35 35 36 37
13 13 13 13 13 13 13 13 12 12 13 14 15 16 16 17 18 18 19 19 20 20 21 22 23 24 24 25 26 27 28 29 30 31 31 32 33 34 35 36 37 38 39
14 14 15 14 14 14 13 14 14 13 13 13 14 15 16 17 18 19 19 19 20 20 21 22 24 25 26 27 27 28 29 29 30 32 32 33 34 35 36 37 38 39 41
15 15 15 15 14 14 14 14 15 15 16 16 16 17 18 18 19 19 20 21 21 22 22 24 24 25 26 27 27 28 29 30 30 31 32 33 35 36 37 38 39 40 42
17 16 16 16 16 16 16 16 17 17 17 17 17 18 19 19 19 20 21 22 22 22 23 24 25 26 27 28 28 28 30 30 30 31 32 33 34 36 38 39 40 41 42
18 18 17 17 17 18 18 18 18 18 18 18 18 19 19 19 20 20 21 21 22 22 24 24 25 26 26 27 28 29 30 31 31 31 32 34 36 36 37 39 40 41 42
20 19 19 19 19 19 19 19 20 19 19 19 19 19 19 20 20 20 20 21 22 23 24 24 25 26 27 27 29 30 30 30 31 32 33 34 35 36 37 38 40 41 42
22 21 21 20 20 21 21 20 20 20 21 21 21 20 20 20 21 20 21 22 23 24 25 26 27 27 28 28 29 29 29 30 31 32 33 34 35 36 37 38 39 40 41
24 23 22 22 21 21 21 21 21 21 22 22 21 21 21 21 21 22 22 22 23 24 25 26 27 27 28 29 28 28 30 30 31 32 33 34 35 36 38 38 39 39 39
25 24 24 23 23 23 23 22 22 22 22 22 22 22 22 21 22 22 23 23 24 24 25 25 25 26 28 28 28 29 29 30 31 32 33 34 35 36 36 36 36 37 37
25 25 25 24 24 24 23 23 22 22 22 22 22 22 22 22 22 23 23 23 23 24 25 25 26 27 28 28 28 28 29 30 31 32 33 34 34 34 34 33 34 34 35
25 24 24 24 24 23 23 22 22 23 23 23 23 22 22 22 23 24 24 23 24 24 25 26 27 27 27 27 28 29 30 31 31 32 32 32 31 31 31 32 33 33 33
25 24 23 24 24 23 23 23 23 23 23 23 23 22 22 22 23 24 23 23 23 24 24 25 26 26 27 27 28 29 30 30 30 30 30 30 30 30 31 31 32 32 32
24 23 23 23 23 23 22 23 23 23 23 22 21 21 21 22 23 23 23 23 23 24 25 25 26 26 26 27 28 29 29 29 29 29 29 29 30 30 30 31 30 31 31
24 23 23 22 22 22 22 22 22 21 21 21 21 21 21 22 23 23 23 23 24 25 26 26 26 26 26 27 28 28 28 28 28 28 28 29 29 29 29 29 29 30 30
22 22 22 22 21 21 21 21 21 21 21 21 21 21 22 23 23 23 23 23 24 25 26 26 26 26 27 27 27 27 28 28 28 28 28 28 28 28 28 28 29 29 30
20 19 19 19 19 20 19 19 20 20 20 21 22 22 22 22 23 23 24 24 25 25 25 25 26 27 27 27 27 28 28 28 28 28 28 28 28 27 28 28 28 28 29
19 19 19 19 19 19 19 19 19 19 20 20 20 21 22 23 23 24 24 24 24 25 25 26 26 27 27 27 27 28 27 27 28 28 27 26 26 27 27 27 27 27 27
18 18 17 17 17 17 17 18 19 19 20 20 21 21 22 22 22 23 24 25 25 26 26 27 27 27 28 27 27 27 27 27 27 27 26 25 25 25 25 25 26 26 26
16 16 16 17 17 17 18 18 19 20 20 21 21 22 22 23 24 25 26 26 26 26 27 27 27 28 28 27 27 27 27 27 26 25 25 24 24 24 24 24 25 25 26
16 16 17 17 18 19 19 19 20 21 22 22 23 23 24 25 26 27 27 27 27 27 27 28 28 28 28 27 27 27 26 25 25 24 23 23 23 23 24 24 25 25 26
16 17 17 18 19 19 19 20 20 21 22 22 23 25 25 26 26 27 27 27 27 27 27 27 27 27 27 27 26 25 25 24 23 23 23 23 23 23 23 24 25 25 25

GEFSGL_500_meanwind_138.txt.gz
Wind_Speed
8 8 8 9 10 10 11 12 12 13 13 14 15 16 16 17 18 18 19 19 19 20 20 21 21 22 22 22 22 22 23 23 24 24 25 25 25 26 28 29 29 29 30
8 8 9 10 10 11 12 13 13 13 14 15 15 15 16 17 18 19 19 19 20 20 20 21 22 22 23 23 23 24 25 25 25 26 26 26 27 28 29 30 30 31 32
9 9 10 11 11 12 12 12 13 14 14 14 14 15 16 16 17 18 19 20 19 20 20 21 22 23 23 23 24 24 25 26 26 27 27 28 28 29 29 30 31 32 33
9 9 10 10 11 12 13 13 13 14 14 14 14 15 16 16 17 18 19 20 19 19 20 21 22 23 23 24 25 25 26 26 27 27 27 28 28 29 30 32 33 35 36
10 10 10 11 11 12 13 13 13 14 14 15 16 16 17 17 18 19 19 19 20 21 22 22 23 24 24 25 25 26 27 27 27 27 27 28 29 31 33 34 35 37 38
11 11 11 12 12 13 13 14 14 15 15 16 16 16 17 17 18 19 20 21 21 22 22 23 23 24 25 25 26 27 27 28 27 28 30 31 32 32 33 35 36 37 38
13 13 13 13 14 14 13 14 14 14 14 15 16 16 17 17 18 19 21 22 22 23 23 24 24 24 25 26 26 28 28 28 29 30 31 32 33 34 34 35 36 37 38
14 14 14 14 15 14 14 14 14 14 15 16 16 17 18 18 19 20 20 21 21 23 23 24 24 25 25 26 27 28 28 28 29 30 31 33 33 34 34 35 36 37 38
15 15 15 15 15 16 16 15 15 16 17 17 17 18 19 20 20 21 21 21 22 23 23 24 25 25 25 26 26 27 28 29 30 31 32 33 33 33 33 34 35 36 37
17 17 17 17 17 17 17 17 17 17 18 18 19 19 19 20 20 21 22 22 23 23 24 25 26 26 27 26 27 28 28 29 30 31 32 32 32 32 33 34 35 36 38
17 18 18 18 19 18 18 18 19 19 19 19 19 20 20 21 22 22 22 23 24 25 25 25 26 26 27 27 28 28 28 29 30 31 32 32 32 33 34 35 36 37 38
19 19 20 20 20 19 20 20 20 20 20 20 20 21 21 22 22 22 23 24 25 26 26 26 26 27 27 27 28 29 29 30 30 31 32 32 33 34 34 35 36 37 38
20 21 21 21 21 22 22 21 22 22 22 22 22 22 23 23 23 24 24 24 25 26 27 27 27 27 27 27 28 28 29 29 30 31 32 33 33 34 35 36 36 37 37
21 22 22 22 23 23 23 23 23 23 23 24 24 24 24 23 24 24 25 25 25 26 26 26 26 26 27 28 28 28 29 30 31 32 33 33 34 35 35 36 36 36 36
23 23 24 24 24 23 24 24 24 24 24 24 24 24 24 25 25 25 26 25 25 25 25 26 27 27 27 28 29 29 30 31 32 32 33 34 35 35 35 35 35 36 35
25 25 25 25 24 25 25 24 24 24 24 24 24 25 26 26 26 26 26 26 26 27 26 26 27 27 28 29 30 31 32 32 32 33 33 34 34 34 34 35 34 34 33
27 27 26 26 25 25 25 24 24 24 25 26 25 25 26 26 26 26 26 27 27 27 27 27 28 29 29 30 30 31 32 32 32 32 33 33 33 33 32 32 32 32 31
28 28 27 27 26 25 25 25 25 25 25 25 25 25 25 26 26 27 26 26 26 27 27 28 28 29 29 30 30 30 31 32 32 32 32 32 31 31 31 31 31 30 30
28 28 27 26 26 25 25 25 25 25 25 25 25 25 25 25 26 26 26 25 26 27 27 28 29 29 29 30 30 31 31 31 31 31 31 30 30 30 30 30 30 29 29
27 27 26 26 25 25 24 25 24 24 24 24 25 25 25 25 26 26 26 26 27 28 29 29 29 30 30 30 30 30 30 30 31 30 30 30 30 30 29 29 28 28 28
26 26 26 25 25 25 25 24 24 24 24 24 25 25 25 25 25 26 26 27 28 28 29 29 29 29 29 30 30 30 30 30 30 30 29 29 29 29 29 28 28 28 28
26 25 25 25 24 24 24 23 23 23 24 24 24 24 24 25 25 26 27 27 27 28 28 28 28 29 29 30 30 30 30 30 30 29 29 29 29 28 28 28 28 27 27
24 24 24 24 23 23 23 22 22 22 23 23 23 24 24 25 25 25 26 27 27 27 28 29 29 30 30 31 31 31 30 30 30 29 29 29 28 27 27 27 26 26 26
23 23 22 22 22 22 23 22 23 23 23 24 24 25 25 25 26 26 27 27 28 28 29 30 30 31 31 31 30 30 29 29 29 29 28 28 27 27 26 26 26 25 25
22 22 22 22 22 22 22 22 23 23 24 25 25 26 26 26 27 27 28 28 29 29 30 30 30 30 30 30 29 29 29 29 29 28 27 27 27 26 26 25 25 25 25
21 22 22 22 22 22 23 23 24 25 25 25 25 26 26 27 28 29 29 29 29 30 30 30 30 30 30 29 29 29 29 29 28 27 27 27 26 26 25 25 24 25 25

GEFSGL_500_meanwind_144.txt.gz
Wind_Speed
9 9 9 9 10 10 11 12 12 13 13 14 15 14 15 16 17 17 19 19 19 20 20 20 21 21 23 24 24 24 25 25 25 25 25 24 24 26 26 27 27 28 28
9 9 9 9 10 11 12 13 13 14 14 14 15 15 16 16 16 17 18 19 19 20 21 21 22 22 22 23 23 24 25 26 26 26 25 25 26 26 27 28 29 28 29
10 10 10 10 10 11 12 13 14 14 15 15 15 16 15 15 16 17 17 19 19 20 21 22 22 23 23 23 23 24 25 25 26 25 26 27 27 27 29 29 30 29 29
10 10 10 10 10 11 12 13 14 15 15 15 15 15 16 16 17 17 18 19 19 20 20 22 22 23 23 23 24 24 24 25 25 26 27 28 29 29 30 30 29 30 30
10 10 11 11 12 12 13 13 14 15 16 16 16 16 16 17 18 18 19 19 19 20 21 22 23 23 22 23 24 24 25 25 26 27 28 29 30 30 30 30 31 31 32
11 11 12 12 13 13 13 14 15 15 16 16 16 16 17 18 19 19 20 19 20 21 22 22 22 22 23 24 24 25 25 26 27 28 28 28 29 30 30 31 31 32 33
13 13 13 13 14 14 14 14 15 15 15 16 16 17 17 18 19 20 20 20 21 21 21 22 22 23 24 24 24 25 26 27 28 28 28 29 30 30 31 31 32 33 33
14 15 14 14 15 15 15 16 16 16 16 17 17 18 19 19 19 20 20 21 21 21 22 23 23 24 24 24 24 25 26 27 28 28 29 30 30 30 30 31 31 32 32
16 16 16 16 16 16 16 17 17 17 17 17 18 19 19 20 20 20 20 21 21 22 23 24 24 25 24 25 25 25 26 26 27 28 29 29 29 30 30 30 32 32 33
18 18 18 18 18 18 18 18 18 18 18 18 18 19 20 20 20 21 21 22 23 23 23 24 24 24 24 25 26 26 27 27 28 28 29 28 28 29 30 32 32 33 34
20 21 21 20 20 20 20 20 20 19 20 20 20 20 21 21 22 22 22 23 24 24 25 25 25 25 26 27 27 27 27 27 28 28 28 28 29 30 31 32 33 33 34
22 23 22 22 22 22 22 22 21 22 22 22 22 22 22 23 23 24 24 24 25 25 26 26 26 26 27 27 27 27 27 28 28 28 29 29 29 30 31 32 33 34 35
24 24 24 24 24 23 23 23 23 23 24 24 24 24 24 24 24 25 25 25 26 26 26 26 26 26 27 27 27 27 27 28 28 29 29 29 30 31 32 33 33 34 34
26 25 25 25 25 24 24 24 25 25 25 25 26 26 26 25 25 25 26 26 26 26 26 27 27 27 27 26 26 26 27 28 29 29 29 30 30 31 32 33 33 34 34
27 27 27 27 27 26 26 26 26 27 27 27 27 28 28 27 27 27 27 27 27 27 28 28 28 27 26 26 26 27 28 30 30 30 31 31 32 32 33 33 33 33 33
28 28 28 28 28 28 28 28 28 28 28 28 28 28 28 28 28 28 28 28 28 28 28 28 27 27 27 27 27 28 29 30 30 31 32 32 32 32 32 32 32 32 32
30 30 30 30 29 29 29 29 29 29 28 28 28 28 29 29 28 28 28 29 29 29 29 29 29 28 28 28 28 29 29 30 31 31 32 32 32 32 31 31 31 30 30
31 31 31 31 30 30 30 30 29 29 29 29 29 29 29 28 28 29 29 29 29 29 29 29 29 28 28 28 29 30 30 31 31 31 31 31 31 31 31 30 29 29 28
31 31 31 31 31 31 30 30 29 29 29 29 30 30 29 28 29 29 28 28 28 28 29 29 28 28 28 29 30 30 31 31 31 31 31 31 30 30 29 29 29 28 28
32 32 32 32 31 31 31 30 30 30 30 30 29 29 28 28 28 28 27 27 27 28 28 28 27 27 29 29 29 30 30 30 30 30 31 30 29 29 29 28 28 28 28
32 32 32 32 31 31 30 30 30 29 29 29 29 28 28 27 27 27 27 27 27 27 28 28 28 28 29 29 29 29 29 29 30 30 29 29 29 29 28 27 27 27 27
32 32 31 31 30 30 29 29 29 28 28 28 28 27 27 27 27 27 27 28 27 27 28 29 29 29 29 29 29 29 29 29 29 29 28 28 28 28 28 27 27 27 27
31 31 31 30 30 29 29 29 29 28 28 27 27 27 27 27 28 28 29 29 28 28 29 29 29 29 29 29 29 29 28 29 29 28 28 28 28 28 28 28 27 27 27
31 30 30 29 29 28 28 28 28 27 27 27 26 26 27 27 28 28 28 28 28 29 29 28 29 29 29 29 29 29 29 29 29 29 28 28 28 28 28 27 27 27 26
30 30 30 28 28 28 28 28 27 27 27 27 27 27 27 28 28 28 28 29 29 29 29 29 30 30 29 30 30 29 29 29 29 28 28 28 28 28 27 27 26 26 26
29 30 29 28 27 27 27 27 27 27 27 27 27 27 28 28 28 28 28 28 29 29 29 29 29 30 30 29 29 30 29 29 28 29 28 28 27 27 26 26 26 26 25

GEFSGL_500_meanwind_150.txt.gz
Wind_Speed
12 12 12 12 12 12 11 11 11 10 11 12 13 13 14 15 15 15 16 17 17 17 17 17 18 19 20 20 21 21 23 24 23 24 24 25 25 25 26 26 25 24 25
13 13 13 12 12 12 11 11 11 11 11 12 12 13 14 15 15 16 16 16 16 17 17 18 19 20 20 21 22 23 24 25 25 25 26 25 25 25 26 27 26 27 27
14 13 13 12 12 12 12 12 12 12 13 13 13 14 15 15 15 15 15 15 16 17 17 18 19 20 20 21 22 23 24 24 24 25 26 26 26 26 27 27 27 28 29
14 14 13 13 12 13 13 13 13 14 14 14 14 15 15 16 16 16 16 17 17 18 18 19 19 20 21 22 23 24 25 24 25 25 26 26 26 27 28 28 28 29 30
15 14 14 14 13 14 14 14 15 15 15 15 15 15 16 16 17 17 17 18 18 18 19 20 20 21 22 23 23 24 25 25 25 25 26 27 27 27 28 28 29 30 31
15 15 15 14 14 14 15 15 15 15 16 16 16 16 16 16 16 16 17 18 18 19 19 20 21 21 22 23 23 24 24 25 25 26 27 27 27 27 29 29 30 30 31
16 16 16 16 16 16 16 16 17 17 17 17 17 17 17 17 17 17 18 19 19 19 20 20 20 21 21 22 23 23 24 25 25 26 26 27 27 28 30 30 30 30 30
17 17 18 18 18 18 18 18 18 18 18 18 18 18 18 18 18 19 19 20 20 20 20 20 20 21 22 22 22 23 23 25 26 27 26 27 28 29 29 29 29 30 30
19 19 20 20 20 20 20 20 20 20 19 19 19 19 19 19 19 20 21 21 21 21 21 22 23 23 23 23 24 24 25 26 26 27 27 27 28 28 28 28 29 30 32
20 21 21 21 22 22 22 22 21 21 21 21 20 19 20 20 21 21 21 22 22 22 23 24 24 24 25 25 25 25 25 26 27 28 28 28 28 27 28 29 30 31 32
22 23 23 23 23 23 23 22 22 22 22 22 22 21 21 21 22 22 23 23 23 24 24 25 25 25 25 26 26 27 27 28 28 28 28 27 27 27 29 30 30 31 32
24 24 25 25 25 25 24 23 23 23 24 23 23 23 23 23 23 24 24 25 25 25 25 25 26 26 27 27 27 27 27 28 27 28 27 27 28 29 30 31 32 32 33
26 26 26 26 27 27 26 25 25 25 25 25 25 25 26 26 26 25 26 26 26 26 27 27 27 27 28 29 29 28 28 28 28 28 28 28 29 30 32 32 33 33 34
29 29 29 29 28 28 27 27 27 26 26 26 26 27 27 27 27 27 27 28 28 29 28 28 29 29 29 29 29 29 29 29 29 29 29 30 30 31 32 33 33 33 34
32 31 31 30 30 30 29 29 29 28 28 28 29 28 27 27 27 27 28 29 29 29 29 29 29 29 29 30 29 30 30 30 30 30 30 31 31 32 33 33 33 33 33
34 33 33 32 32 31 31 31 31 30 30 30 30 29 29 28 29 29 29 29 29 29 30 30 29 30 30 30 30 30 30 31 32 32 32 32 32 33 32 33 33 33 32
34 34 33 33 33 33 32 32 32 31 31 31 31 30 30 30 30 30 30 31 31 30 30 30 30 30 30 31 31 31 31 32 32 32 32 32 32 32 33 33 33 32 32
35 35 34 34 34 34 33 33 33 33 33 33 32 32 31 31 31 31 31 31 31 31 30 30 31 31 30 31 31 31 31 31 31 31 31 31 31 32 32 32 32 31 30
36 36 35 35 35 34 34 34 33 33 33 33 33 32 32 31 31 31 31 31 31 31 31 31 31 31 31 31 31 31 31 31 32 31 31 31 31 31 31 31 30 30 29
36 36 35 35 35 34 34 34 34 34 33 33 32 31 31 31 31 31 31 31 31 31 31 31 31 31 32 31 31 31 31 32 32 32 31 31 30 30 30 30 29 29 28
35 35 34 34 34 34 34 34 34 34 33 32 32 32 32 31 31 31 31 31 31 31 31 31 31 32 32 31 31 32 32 32 32 31 30 30 30 30 30 30 29 29 29
35 35 34 34 34 34 34 34 34 34 33 33 32 32 31 31 30 31 30 30 30 31 31 32 32 32 32 31 31 31 31 31 31 31 30 30 30 30 30 29 29 29 28
35 35 35 35 35 35 35 34 34 33 33 32 32 31 31 31 31 31 30 31 31 31 31 32 32 32 32 31 31 31 31 31 31 31 31 31 30 30 29 29 29 28 28
35 34 34 34 34 34 34 34 33 33 32 32 32 32 31 31 32 31 31 31 32 32 32 32 32 32 31 31 31 31 31 31 32 31 31 31 31 30 29 29 28 28 27
34 34 34 34 34 34 34 33 32 32 32 32 32 32 32 32 32 32 32 32 33 33 33 33 32 32 32 32 32 32 32 32 31 31 31 31 30 29 29 29 28 28 28
35 34 34 34 33 33 33 33 32 32 32 32 32 32 32 33 33 33 33 33 33 33 33 33 33 33 33 33 32 32 31 31 30 31 30 30 29 29 29 28 28 28 28

GEFSGL_500_meanwind_156.txt.gz
Wind_Speed
7 7 7 8 8 9 9 9 8 8 8 8 8 9 10 11 11 12 12 12 12 13 14 15 16 16 16 16 17 17 18 19 19 20 22 22 23 23 23 22 23 24 24
9 8 8 9 9 10 10 9 9 9 8 8 8 9 10 11 12 12 12 12 13 14 14 14 15 16 16 17 17 18 18 20 21 22 23 23 23 24 24 24 25 26 26
9 9 9 10 11 11 10 9 9 9 9 8 9 10 11 11 11 12 12 13 13 14 14 15 15 16 16 17 17 18 19 20 21 22 23 24 24 25 25 26 26 26 26
9 9 10 11 11 11 11 10 10 10 10 10 10 11 11 12 12 12 13 13 13 14 14 14 15 16 17 18 18 19 19 20 21 22 23 23 25 26 25 26 26 26 26
10 10 10 11 11 11 10 10 11 11 11 11 11 12 12 12 12 12 13 13 14 14 14 15 15 16 17 18 19 19 20 21 22 23 23 24 25 26 26 26 26 26 27
11 11 11 11 11 11 11 12 12 12 12 12 12 12 13 13 13 13 13 14 14 14 14 14 15 16 17 18 20 20 21 22 23 23 24 24 25 25 26 26 27 27 28
13 13 13 13 13 13 13 13 13 13 13 13 13 14 14 14 14 14 15 15 15 15 15 15 16 17 17 19 20 21 22 22 23 23 23 24 25 25 26 27 27 28 28
14 14 15 15 15 15 15 15 15 15 15 15 15 15 15 15 15 16 16 17 17 17 17 17 18 18 19 20 21 21 21 22 22 22 23 24 24 25 26 27 28 28 29
16 15 16 16 16 17 17 17 16 16 16 16 17 16 16 16 16 16 16 17 17 18 19 19 19 20 21 21 21 21 22 23 23 24 24 25 26 27 27 28 28 29 29
18 18 18 18 18 19 19 19 18 18 18 18 18 18 17 17 17 17 17 17 18 19 20 21 21 21 22 22 22 23 23 24 24 25 26 26 27 27 28 28 29 29 29
21 21 21 21 21 21 21 20 20 20 20 20 20 19 20 19 19 19 19 19 20 20 21 21 22 22 23 23 23 24 24 25 25 26 27 27 27 27 28 28 29 30 30
23 23 23 23 23 23 23 22 22 22 22 22 22 21 21 21 21 21 22 22 22 22 23 23 23 24 24 24 24 25 25 26 26 27 27 27 28 28 28 29 30 31 31
26 26 26 25 25 25 25 25 25 25 25 25 24 24 24 23 23 23 23 24 24 24 24 24 24 25 25 25 26 26 26 27 27 28 28 28 29 29 30 31 31 32 32
28 28 27 27 27 27 27 27 27 27 27 27 26 25 25 25 25 25 25 25 26 26 26 26 26 26 26 27 27 27 27 28 28 29 29 29 30 30 31 31 32 32 33
30 30 29 29 28 28 28 28 29 28 28 28 28 27 27 28 27 27 27 27 27 27 27 27 27 28 28 28 28 28 28 28 29 29 30 31 31 31 31 32 32 32 33
32 31 31 31 30 30 30 30 30 29 30 30 30 30 30 30 30 29 29 29 29 29 28 28 29 29 29 29 29 29 29 30 30 30 30 31 31 31 31 32 32 32 32
34 34 33 33 33 32 31 32 31 31 30 31 31 31 31 31 30 30 30 30 30 29 29 29 29 29 29 30 30 30 31 30 30 31 31 31 31 31 31 31 32 32 32
35 35 35 35 34 33 33 33 32 32 32 32 32 32 31 31 31 31 31 30 30 30 30 30 30 30 30 30 30 30 31 31 31 31 31 31 31 31 31 31 32 31 31
36 36 36 35 35 35 34 33 33 33 32 32 32 32 31 31 31 31 30 30 30 30 30 30 30 30 30 30 31 31 31 31 32 32 32 32 31 31 31 31 31 30 30
37 37 37 37 36 36 35 34 34 34 33 33 33 32 32 31 31 32 31 31 31 31 31 31 31 31 31 31 31 31 32 32 32 32 31 31 31 31 31 31 30 30 29
38 38 38 37 36 36 35 35 35 34 34 34 33 33 33 32 32 32 31 31 31 32 32 32 32 31 32 32 32 32 33 32 32 31 31 31 31 30 30 30 30 29 29
38 37 37 37 37 36 36 35 35 34 34 34 33 33 33 32 32 32 32 32 32 32 32 32 32 32 32 32 32 32 32 32 31 31 31 31 30 30 30 30 30 29 29
37 37 37 37 36 36 35 35 35 34 34 34 33 34 33 33 33 32 32 33 33 33 33 33 33 33 33 33 33 32 32 32 32 32 31 31 30 30 30 30 30 29 29
37 36 36 36 36 36 35 35 34 34 34 33 34 34 33 32 33 33 33 33 33 33 33 33 32 33 33 33 33 33 33 33 32 32 32 31 31 30 30 30 30 29 29
36 36 36 35 35 35 35 34 34 34 34 34 34 34 33 33 33 33 33 32 32 32 32 33 32 33 33 33 33 33 33 33 33 33 33 32 31 30 30 30 29 29 29
34 34 34 34 33 33 33 33 33 33 33 33 33 33 33 33 33 32 32 31 31 32 33 33 32 32 33 33 33 33 33 33 33 33 32 32 31 31 30 30 30 30 29

GEFSGL_500_meanwind_162.txt.gz
Wind_Speed
8 8 8 7 7 7 8 8 8 8 9 9 9 10 10 11 11 11 12 13 13 14 16 16 16 16 17 17 18 18 18 19 19 20 21 22 22 23 23 23 24 25 25
9 9 8 8 8 8 9 9 9 10 10 10 10 10 11 11 11 11 12 12 13 14 15 15 16 17 17 18 18 18 19 19 19 19 20 21 22 23 23 24 26 26 27
9 9 9 9 9 9 10 10 10 11 11 11 11 11 12 12 12 12 12 13 13 14 15 15 16 17 18 18 18 18 19 19 20 20 21 22 22 23 25 25 26 26 27
10 10 10 10 10 10 10 11 12 12 12 12 12 12 13 13 13 13 13 14 14 15 15 16 16 16 16 17 17 18 19 20 21 21 22 22 23 24 25 26 26 27 27
11 11 11 11 11 12 12 12 12 13 13 13 13 13 13 14 14 15 15 16 17 16 16 17 17 17 17 17 18 19 20 21 21 22 22 23 24 26 26 27 28 28 28
13 12 13 13 13 13 13 13 13 14 13 13 13 14 15 15 15 16 16 16 17 17 18 18 18 18 18 19 19 20 21 21 22 23 23 24 25 26 28 28 29 29 28
14 14 14 14 14 14 14 14 14 14 15 15 15 15 15 16 16 17 17 17 18 19 19 19 19 19 20 20 21 21 22 22 23 24 25 25 26 27 28 28 28 28 28
16 15 16 15 14 15 15 15 16 15 16 17 17 17 17 17 17 18 18 18 19 19 19 20 20 20 21 22 22 23 24 24 24 25 25 26 27 28 28 28 27 28 29
17 16 17 16 15 16 16 16 16 17 18 18 18 18 18 18 18 19 19 19 19 19 20 20 21 21 22 23 23 24 24 25 26 26 27 27 28 28 28 28 29 30 31
20 18 18 17 17 17 18 18 18 18 19 19 19 19 20 20 20 20 20 20 20 20 21 21 22 23 23 24 24 25 25 26 27 28 28 29 29 29 29 30 31 31 31
22 20 19 20 20 20 20 20 20 20 20 20 21 21 21 22 21 21 21 22 22 22 22 23 24 24 24 25 26 26 26 27 28 28 29 30 30 31 31 31 32 32 33
25 24 23 23 23 23 23 23 23 23 23 23 23 23 23 23 23 24 24 24 23 24 24 25 26 26 27 27 28 28 28 28 29 29 30 31 31 31 32 32 32 33 33
28 28 27 26 26 26 27 27 26 26 26 25 25 25 25 25 25 25 25 26 26 26 27 27 27 28 29 30 30 30 30 31 31 31 31 32 32 33 33 33 33 33 33
32 31 30 30 29 29 29 29 29 28 28 27 27 27 27 27 27 28 28 28 28 29 29 29 30 30 31 31 31 31 31 32 32 32 33 33 33 33 33 33 33 33 34
35 34 33 33 32 31 31 31 31 31 30 30 29 29 29 29 30 30 30 30 30 30 31 31 31 31 31 32 32 32 32 32 32 33 33 34 34 34 34 34 33 33 33
36 35 34 33 33 33 32 32 32 32 31 31 31 31 30 30 30 30 31 32 32 31 31 32 32 32 32 32 32 33 33 33 34 34 34 34 33 33 33 33 33 33 33
39 37 35 34 34 34 34 33 33 32 32 32 32 32 32 32 32 32 32 32 32 32 32 32 32 32 32 32 32 33 33 34 34 35 34 34 34 34 33 33 34 34 34
37 35 34 35 34 33 33 32 32 32 33 33 33 33 34 34 33 33 33 33 33 33 33 33 32 33 33 33 33 33 34 35 35 35 35 34 35 35 35 35 34 34 34
38 37 36 35 34 34 33 33 33 33 34 34 34 34 35 35 34 34 34 34 34 34 34 34 34 34 34 34 34 35 35 35 35 35 35 35 35 35 35 35 35 34 34
38 37 36 35 35 35 35 35 35 35 35 35 35 35 35 35 35 35 35 35 36 35 35 35 35 35 35 35 35 35 35 34 34 35 35 35 35 35 35 35 35 34 33
37 37 36 36 37 37 36 36 36 37 37 37 37 36 36 36 36 36 35 35 36 36 36 36 36 36 35 35 35 35 35 34 34 35 35 35 35 35 35 34 34 34 33
36 36 36 36 37 37 37 37 37 37 37 37 37 36 36 36 36 36 36 36 36 36 36 36 36 36 35 35 35 35 35 35 35 35 35 35 35 34 34 34 34 34 34
36 36 36 37 37 37 36 37 37 37 37 36 37 37 37 36 36 36 36 36 36 36 36 36 36 36 35 35 35 35 35 35 35 35 35 35 34 34 34 33 33 33 33
35 35 35 36 36 36 36 36 37 37 37 37 36 36 36 36 35 35 36 36 35 35 35 35 35 35 35 35 35 35 35 35 36 35 35 35 34 34 34 34 34 34 34
34 34 34 35 35 35 35 35 36 36 35 35 35 35 35 35 35 35 36 36 35 35 35 35 35 36 36 35 35 35 35 35 35 35 35 34 34 34 34 35 35 35 35
33 33 34 34 34 34 34 35 34 34 35 35 35 35 35 35 35 35 35 35 35 35 36 36 36 36 36 35 35 35 35 36 36 36 35 34 34 34 35 35 35 35 35

GEFSGL_500_meanwind_168.txt.gz
Wind_Speed
9 9 8 8 8 8 8 8 8 9 9 9 10 10 10 11 11 11 12 13 14 14 14 15 16 16 17 16 17 17 17 17 17 19 20 20 21 21 21 22 22 22 23
9 9 9 9 9 9 9 10 10 10 10 10 10 11 11 11 11 12 13 14 14 14 14 14 15 15 15 16 16 17 17 18 18 18 19 20 21 21 21 23 23 23 24
10 9 9 10 10 10 11 11 11 11 11 11 11 12 12 12 12 13 13 14 14 14 15 15 16 16 16 16 16 17 18 18 18 18 20 20 21 21 21 22 23 24 24
11 10 10 11 11 11 12 13 13 12 12 12 12 13 13 13 13 13 13 14 14 15 15 16 16 16 17 17 17 17 18 18 19 20 20 20 21 22 22 23 24 24 25
13 13 13 12 13 13 13 13 13 13 13 13 14 14 14 14 14 14 14 15 15 16 16 17 17 17 18 18 19 19 19 20 20 20 21 21 22 22 23 24 25 25 26
15 14 14 14 15 15 15 15 15 15 15 15 15 16 16 16 15 15 16 16 17 16 17 18 18 19 19 20 20 20 21 21 21 21 21 22 23 24 25 25 25 26 27
16 16 16 16 17 16 16 17 16 16 16 17 17 17 18 17 17 16 17 18 18 18 18 18 19 19 20 21 21 22 22 22 22 22 22 23 24 25 26 26 27 27 28
18 18 18 18 19 18 18 18 19 18 18 18 18 18 19 19 18 18 18 19 18 19 19 20 20 20 21 21 21 22 22 22 23 23 24 25 25 26 27 28 28 29 29
19 19 20 20 20 20 20 20 19 19 20 20 20 21 21 20 20 20 20 20 20 20 20 21 21 21 22 23 23 23 23 24 25 25 26 26 27 27 28 29 29 29 30
22 22 22 22 22 22 22 22 22 22 22 22 22 22 23 23 22 22 22 22 22 22 22 22 23 24 24 24 24 25 25 26 27 27 28 28 28 29 29 29 30 30 30
25 25 25 24 24 24 24 24 24 25 24 24 24 24 24 25 25 24 24 23 24 24 24 24 25 25 26 26 27 27 28 28 29 29 30 30 31 30 30 30 31 31 31
28 29 28 27 27 27 26 26 26 27 27 27 27 27 27 27 26 26 25 25 25 26 26 27 27 27 28 28 29 30 30 30 30 31 31 31 31 31 31 31 31 32 32
31 30 30 30 29 29 29 29 29 29 30 30 30 29 29 29 29 29 28 27 27 27 28 29 29 29 30 31 31 31 31 31 31 31 32 32 31 31 32 32 32 33 33
33 32 32 32 32 32 32 31 32 32 31 31 31 31 31 31 30 30 30 30 30 29 29 30 30 31 31 32 31 31 31 31 31 32 32 32 32 32 32 32 33 34 33
34 35 35 35 35 34 34 34 34 34 34 32 32 32 32 32 32 32 31 32 32 32 32 32 32 32 32 32 32 32 32 32 32 32 32 32 33 33 33 34 34 35 34
37 37 37 37 37 37 36 36 36 36 34 35 35 34 33 33 33 33 33 33 34 34 34 34 34 33 33 33 33 33 33 33 33 33 33 33 34 34 34 34 34 34 34
39 39 38 38 38 38 38 37 37 36 36 36 35 34 33 33 33 33 33 34 34 34 34 34 34 34 34 34 34 34 34 34 34 34 34 34 34 34 34 34 34 35 35
40 40 40 40 40 39 39 39 38 37 36 36 36 35 34 34 34 33 34 34 34 34 34 35 35 34 34 35 35 35 35 35 35 35 35 35 34 34 34 35 35 34 34
41 41 41 40 40 40 40 39 38 38 38 38 37 37 36 36 35 35 35 35 35 35 36 36 35 35 35 36 36 36 36 36 36 36 36 35 35 35 35 35 35 34 34
40 41 41 41 41 40 40 39 39 40 39 39 38 38 37 37 36 36 36 36 36 36 36 37 36 36 36 36 36 37 36 36 36 36 35 35 35 35 35 35 35 34 34
42 41 41 40 40 40 41 41 41 41 40 39 39 38 38 38 37 37 37 37 37 37 37 37 37 37 37 37 37 36 36 36 36 36 35 35 35 36 36 36 36 35 35
40 39 39 39 40 40 40 40 40 39 39 39 38 39 39 38 38 38 38 38 38 38 37 37 37 37 37 37 37 37 37 37 37 37 36 36 36 37 37 36 36 35 36
38 38 38 38 39 39 39 38 38 37 37 37 38 38 39 38 38 38 38 38 38 38 37 37 36 37 37 38 38 38 38 38 38 38 38 38 37 37 37 36 36 36 36
34 35 35 36 36 37 37 37 36 36 37 37 38 37 37 36 37 37 37 37 37 37 37 37 37 38 38 38 38 38 38 38 38 38 38 37 37 37 37 37 36 36 36
33 33 33 33 34 34 35 35 34 34 35 35 36 35 35 35 35 36 36 37 37 37 37 37 37 37 37 37 37 37 37 37 37 37 37 37 37 37 37 37 36 36 36
31 31 32 32 32 33 33 33 33 33 34 34 35 34 34 34 34 34 35 36 36 35 35 35 35 36 36 36 36 37 37 37 37 37 37 37 37 37 36 36 36 36 35

GEFSGL_500_meanwind_174.txt.gz
Wind_Speed
13 12 11 11 11 11 11 10 11 11 11 11 11 12 12 12 11 11 11 11 12 13 13 13 13 14 15 15 15 15 15 15 16 17 17 18 18 18 19 19 19 20 21
13 13 12 12 12 12 11 11 12 12 12 12 12 13 13 13 12 12 13 13 13 13 13 13 14 14 15 14 15 15 15 16 16 17 18 18 19 19 20 21 21 21 21
13 13 13 13 13 12 12 12 13 13 13 13 13 13 13 13 13 13 14 14 14 14 15 15 15 15 15 15 16 16 17 17 18 18 19 19 19 20 20 21 22 22 22
14 15 15 15 14 14 14 14 14 14 14 15 15 15 15 15 14 14 15 15 15 16 16 16 16 16 16 16 17 18 18 19 19 20 20 20 20 21 21 21 22 22 23
16 16 16 16 16 16 15 16 16 16 16 16 16 17 16 16 16 16 16 16 17 17 17 17 17 17 17 18 19 19 20 20 21 21 21 22 21 21 22 22 23 24 24
18 17 17 17 18 18 17 17 18 18 18 17 18 18 18 17 17 17 17 18 18 18 18 19 19 19 19 19 20 21 21 22 22 22 22 23 23 24 24 24 24 25 26
18 19 19 18 19 19 19 19 19 19 19 19 19 19 19 18 18 19 19 19 20 20 20 20 20 20 20 21 21 22 22 23 23 23 23 24 24 25 25 26 26 26 27
21 21 21 21 21 21 21 21 21 21 20 20 20 21 21 20 20 20 20 21 21 21 21 22 22 22 22 22 23 23 24 24 24 25 25 25 26 26 26 27 27 28 28
23 24 23 23 23 23 23 23 23 23 23 22 22 22 23 23 23 23 23 24 24 24 24 23 23 24 24 24 25 25 25 25 26 26 27 27 27 28 28 29 29 29 30
26 27 27 26 25 25 25 25 24 24 24 24 24 24 24 24 25 25 26 26 26 26 26 26 25 26 26 27 27 26 26 26 27 28 28 28 29 30 30 30 31 31 31
30 30 29 28 27 27 26 25 25 26 26 27 27 26 26 26 27 27 28 28 28 27 27 27 27 27 28 28 28 28 28 28 28 29 30 30 30 31 31 31 31 31 32
32 32 31 30 29 28 28 28 28 27 28 29 29 29 29 29 29 29 29 29 29 29 29 29 29 29 29 30 30 30 30 30 30 31 31 31 32 32 32 32 32 33 33
34 34 33 32 31 31 30 30 30 31 31 31 30 30 30 29 31 31 30 30 30 31 31 30 30 30 31 32 32 32 32 32 32 32 31 32 33 33 33 33 34 33 33
35 35 34 34 33 33 34 34 33 33 33 33 32 32 31 31 32 32 32 32 32 32 32 32 32 32 33 33 33 33 33 33 33 33 33 33 34 34 34 34 34 34 34
37 37 37 36 36 36 36 36 35 35 35 35 35 34 35 34 34 33 33 34 35 35 35 34 34 34 34 34 34 34 34 34 33 34 34 34 34 34 34 34 35 35 35
38 38 38 38 38 38 38 36 36 37 37 37 36 37 37 37 37 37 37 37 36 36 35 35 35 35 35 35 35 35 34 34 34 34 34 35 35 35 35 35 36 36 35
39 39 39 39 39 39 38 38 38 38 38 38 38 39 39 39 39 40 39 39 38 38 38 37 37 36 36 36 36 35 35 35 36 36 36 35 36 36 36 36 36 36 36
39 40 41 40 40 40 40 40 40 39 39 39 40 41 42 42 41 41 40 39 39 38 38 38 38 38 38 37 37 37 37 37 37 37 37 36 37 37 37 37 37 36 37
40 41 41 41 41 41 42 41 41 41 41 41 42 42 43 42 42 41 40 40 39 39 39 39 39 39 38 38 38 38 38 38 38 37 37 38 38 38 38 38 38 38 38
41 41 41 41 41 41 42 42 42 42 43 43 42 42 42 41 41 40 40 39 40 40 40 40 40 40 40 39 39 39 39 39 39 38 38 38 39 39 39 39 39 39 39
41 41 42 42 42 42 42 42 43 43 43 42 42 41 40 40 41 41 40 40 40 40 40 40 41 41 41 40 40 40 40 40 40 39 39 39 40 40 39 39 40 40 40
40 40 40 40 40 41 41 41 41 41 40 40 40 41 41 42 41 41 41 41 41 40 40 40 41 41 41 40 39 40 40 40 40 40 40 40 40 40 40 40 40 39 40
39 39 38 38 38 38 38 38 39 39 39 39 40 40 41 41 41 41 41 40 40 40 40 40 40 40 40 40 39 40 40 40 40 40 40 40 40 40 40 39 39 39 39
38 38 37 37 37 37 38 39 39 39 39 39 40 40 40 40 39 39 38 38 38 38 38 39 39 39 39 39 39 40 40 40 40 40 40 40 40 39 39 38 38 38 38
37 37 37 37 37 38 38 38 38 38 38 39 38 38 38 38 38 38 38 37 37 37 38 39 39 39 39 39 39 39 39 39 39 39 39 39 39 38 38 38 38 38 38
35 36 36 36 36 36 36 36 36 36 36 36 36 36 37 37 37 38 38 38 38 38 39 39 39 39 39 39 39 39 38 39 39 39 39 38 38 38 38 38 38 38 37